<?xml version="1.0" encoding="UTF-8" standalone="no" ?>
<gpx xmlns="http://www.topografix.com/GPX/1/1" xmlns:xsi="http://www.w3.org/2001/XMLSchema-instance" xsi:schemaLocation="http://www.topografix.com/GPX/1/1 http://www.topografix.com/GPX/1/1/gpx.xsd" version="1.1" creator="VisuGPX - https://www.visugpx.com">
  <metadata>
    <name>Vertaco Bike 39km Sportive_6irtnu4fyg</name>
  </metadata>
  <trk>
    <name><![CDATA[10095922-new 39km vertaco bike]]></name>
    <extensions>
      <line xmlns="http://www.topografix.com/GPX/gpx_style/0/2">
        <color>0000FF</color>
        <width>4</width>
      </line>
    </extensions>
    <trkseg>
      <trkpt lat="45.17494" lon="5.54186">
        <ele>1045</ele>
        <time>2019-06-19T21:35:03Z</time>
      </trkpt>
      <trkpt lat="45.17498" lon="5.54184">
        <ele>1045</ele>
        <time>2019-06-19T21:35:04Z</time>
      </trkpt>
      <trkpt lat="45.17486" lon="5.54188">
        <ele>1044</ele>
        <time>2019-06-19T21:35:07Z</time>
      </trkpt>
      <trkpt lat="45.17482" lon="5.54181">
        <ele>1044</ele>
        <time>2019-06-19T21:35:08Z</time>
      </trkpt>
      <trkpt lat="45.17477" lon="5.54159">
        <ele>1044</ele>
        <time>2019-06-19T21:35:12Z</time>
      </trkpt>
      <trkpt lat="45.17471" lon="5.54148">
        <ele>1043</ele>
        <time>2019-06-19T21:35:14Z</time>
      </trkpt>
      <trkpt lat="45.17377" lon="5.54055">
        <ele>1037</ele>
        <time>2019-06-19T21:35:41Z</time>
      </trkpt>
      <trkpt lat="45.17372" lon="5.54037">
        <ele>1036</ele>
        <time>2019-06-19T21:35:44Z</time>
      </trkpt>
      <trkpt lat="45.17374" lon="5.54018">
        <ele>1036</ele>
        <time>2019-06-19T21:35:48Z</time>
      </trkpt>
      <trkpt lat="45.17412" lon="5.53867">
        <ele>1033</ele>
        <time>2019-06-19T21:36:14Z</time>
      </trkpt>
      <trkpt lat="45.17443" lon="5.53689">
        <ele>1037</ele>
        <time>2019-06-19T21:36:44Z</time>
      </trkpt>
      <trkpt lat="45.1747" lon="5.53684">
        <ele>1038</ele>
        <time>2019-06-19T21:36:50Z</time>
      </trkpt>
      <trkpt lat="45.1749" lon="5.53687">
        <ele>1038</ele>
        <time>2019-06-19T21:36:55Z</time>
      </trkpt>
      <trkpt lat="45.17522" lon="5.53686">
        <ele>1040</ele>
        <time>2019-06-19T21:37:03Z</time>
      </trkpt>
      <trkpt lat="45.17588" lon="5.53691">
        <ele>1046</ele>
        <time>2019-06-19T21:37:18Z</time>
      </trkpt>
      <trkpt lat="45.17645" lon="5.53673">
        <ele>1048</ele>
        <time>2019-06-19T21:37:32Z</time>
      </trkpt>
      <trkpt lat="45.17658" lon="5.53662">
        <ele>1048</ele>
        <time>2019-06-19T21:37:35Z</time>
      </trkpt>
      <trkpt lat="45.17669" lon="5.53645">
        <ele>1048</ele>
        <time>2019-06-19T21:37:39Z</time>
      </trkpt>
      <trkpt lat="45.17729" lon="5.53508">
        <ele>1037</ele>
        <time>2019-06-19T21:38:06Z</time>
      </trkpt>
      <trkpt lat="45.17763" lon="5.53425">
        <ele>1037</ele>
        <time>2019-06-19T21:38:21Z</time>
      </trkpt>
      <trkpt lat="45.17815" lon="5.53287">
        <ele>1039</ele>
        <time>2019-06-19T21:38:47Z</time>
      </trkpt>
      <trkpt lat="45.17823" lon="5.53277">
        <ele>1039</ele>
        <time>2019-06-19T21:38:50Z</time>
      </trkpt>
      <trkpt lat="45.17828" lon="5.53275">
        <ele>1040</ele>
        <time>2019-06-19T21:38:51Z</time>
      </trkpt>
      <trkpt lat="45.17839" lon="5.53277">
        <ele>1040</ele>
        <time>2019-06-19T21:38:53Z</time>
      </trkpt>
      <trkpt lat="45.17903" lon="5.53301">
        <ele>1042</ele>
        <time>2019-06-19T21:39:09Z</time>
      </trkpt>
      <trkpt lat="45.17951" lon="5.53339">
        <ele>1042</ele>
        <time>2019-06-19T21:39:22Z</time>
      </trkpt>
      <trkpt lat="45.17961" lon="5.53342">
        <ele>1041</ele>
        <time>2019-06-19T21:39:24Z</time>
      </trkpt>
      <trkpt lat="45.17976" lon="5.53342">
        <ele>1041</ele>
        <time>2019-06-19T21:39:28Z</time>
      </trkpt>
      <trkpt lat="45.17999" lon="5.53336">
        <ele>1040</ele>
        <time>2019-06-19T21:39:33Z</time>
      </trkpt>
      <trkpt lat="45.18034" lon="5.53346">
        <ele>1042</ele>
        <time>2019-06-19T21:39:41Z</time>
      </trkpt>
      <trkpt lat="45.1805" lon="5.53348">
        <ele>1043</ele>
        <time>2019-06-19T21:39:45Z</time>
      </trkpt>
      <trkpt lat="45.18077" lon="5.53344">
        <ele>1045</ele>
        <time>2019-06-19T21:39:52Z</time>
      </trkpt>
      <trkpt lat="45.18095" lon="5.53336">
        <ele>1045</ele>
        <time>2019-06-19T21:39:56Z</time>
      </trkpt>
      <trkpt lat="45.18211" lon="5.53325">
        <ele>1051</ele>
        <time>2019-06-19T21:40:23Z</time>
      </trkpt>
      <trkpt lat="45.18253" lon="5.53342">
        <ele>1054</ele>
        <time>2019-06-19T21:40:33Z</time>
      </trkpt>
      <trkpt lat="45.18271" lon="5.53365">
        <ele>1056</ele>
        <time>2019-06-19T21:40:39Z</time>
      </trkpt>
      <trkpt lat="45.18304" lon="5.53427">
        <ele>1062</ele>
        <time>2019-06-19T21:40:52Z</time>
      </trkpt>
      <trkpt lat="45.18321" lon="5.53522">
        <ele>1065</ele>
        <time>2019-06-19T21:41:08Z</time>
      </trkpt>
      <trkpt lat="45.18305" lon="5.53588">
        <ele>1069</ele>
        <time>2019-06-19T21:41:19Z</time>
      </trkpt>
      <trkpt lat="45.18328" lon="5.53617">
        <ele>1066</ele>
        <time>2019-06-19T21:41:27Z</time>
      </trkpt>
      <trkpt lat="45.18343" lon="5.53631">
        <ele>1066</ele>
        <time>2019-06-19T21:41:31Z</time>
      </trkpt>
      <trkpt lat="45.18375" lon="5.53647">
        <ele>1069</ele>
        <time>2019-06-19T21:41:39Z</time>
      </trkpt>
      <trkpt lat="45.18423" lon="5.53729">
        <ele>1074</ele>
        <time>2019-06-19T21:41:56Z</time>
      </trkpt>
      <trkpt lat="45.1847" lon="5.53773">
        <ele>1078</ele>
        <time>2019-06-19T21:42:09Z</time>
      </trkpt>
      <trkpt lat="45.18532" lon="5.53814">
        <ele>1081</ele>
        <time>2019-06-19T21:42:25Z</time>
      </trkpt>
      <trkpt lat="45.18621" lon="5.53829">
        <ele>1086</ele>
        <time>2019-06-19T21:42:46Z</time>
      </trkpt>
      <trkpt lat="45.18676" lon="5.5382">
        <ele>1089</ele>
        <time>2019-06-19T21:42:59Z</time>
      </trkpt>
      <trkpt lat="45.187" lon="5.53842">
        <ele>1091</ele>
        <time>2019-06-19T21:43:06Z</time>
      </trkpt>
      <trkpt lat="45.18764" lon="5.5387">
        <ele>1098</ele>
        <time>2019-06-19T21:43:22Z</time>
      </trkpt>
      <trkpt lat="45.18789" lon="5.53876">
        <ele>1102</ele>
        <time>2019-06-19T21:43:27Z</time>
      </trkpt>
      <trkpt lat="45.18838" lon="5.53875">
        <ele>1109</ele>
        <time>2019-06-19T21:43:39Z</time>
      </trkpt>
      <trkpt lat="45.18853" lon="5.5387">
        <ele>1112</ele>
        <time>2019-06-19T21:43:42Z</time>
      </trkpt>
      <trkpt lat="45.1892" lon="5.53882">
        <ele>1121</ele>
        <time>2019-06-19T21:43:58Z</time>
      </trkpt>
      <trkpt lat="45.18928" lon="5.53877">
        <ele>1123</ele>
        <time>2019-06-19T21:44:00Z</time>
      </trkpt>
      <trkpt lat="45.18956" lon="5.53838">
        <ele>1130</ele>
        <time>2019-06-19T21:44:09Z</time>
      </trkpt>
      <trkpt lat="45.18949" lon="5.53709">
        <ele>1140</ele>
        <time>2019-06-19T21:44:31Z</time>
      </trkpt>
      <trkpt lat="45.18911" lon="5.53631">
        <ele>1142</ele>
        <time>2019-06-19T21:44:46Z</time>
      </trkpt>
      <trkpt lat="45.18862" lon="5.53621">
        <ele>1133</ele>
        <time>2019-06-19T21:44:58Z</time>
      </trkpt>
      <trkpt lat="45.18831" lon="5.53594">
        <ele>1131</ele>
        <time>2019-06-19T21:45:06Z</time>
      </trkpt>
      <trkpt lat="45.18821" lon="5.53564">
        <ele>1135</ele>
        <time>2019-06-19T21:45:12Z</time>
      </trkpt>
      <trkpt lat="45.18841" lon="5.53502">
        <ele>1150</ele>
        <time>2019-06-19T21:45:23Z</time>
      </trkpt>
      <trkpt lat="45.18856" lon="5.53487">
        <ele>1155</ele>
        <time>2019-06-19T21:45:27Z</time>
      </trkpt>
      <trkpt lat="45.18891" lon="5.5341">
        <ele>1171</ele>
        <time>2019-06-19T21:45:42Z</time>
      </trkpt>
      <trkpt lat="45.18913" lon="5.53382">
        <ele>1178</ele>
        <time>2019-06-19T21:45:49Z</time>
      </trkpt>
      <trkpt lat="45.1896" lon="5.53367">
        <ele>1187</ele>
        <time>2019-06-19T21:46:01Z</time>
      </trkpt>
      <trkpt lat="45.1899" lon="5.53362">
        <ele>1193</ele>
        <time>2019-06-19T21:46:08Z</time>
      </trkpt>
      <trkpt lat="45.19021" lon="5.53376">
        <ele>1196</ele>
        <time>2019-06-19T21:46:15Z</time>
      </trkpt>
      <trkpt lat="45.19042" lon="5.53374">
        <ele>1200</ele>
        <time>2019-06-19T21:46:20Z</time>
      </trkpt>
      <trkpt lat="45.1908" lon="5.53361">
        <ele>1208</ele>
        <time>2019-06-19T21:46:29Z</time>
      </trkpt>
      <trkpt lat="45.19087" lon="5.53356">
        <ele>1211</ele>
        <time>2019-06-19T21:46:31Z</time>
      </trkpt>
      <trkpt lat="45.19096" lon="5.53363">
        <ele>1212</ele>
        <time>2019-06-19T21:46:34Z</time>
      </trkpt>
      <trkpt lat="45.19101" lon="5.53377">
        <ele>1211</ele>
        <time>2019-06-19T21:46:36Z</time>
      </trkpt>
      <trkpt lat="45.19078" lon="5.53431">
        <ele>1199</ele>
        <time>2019-06-19T21:46:47Z</time>
      </trkpt>
      <trkpt lat="45.19079" lon="5.53439">
        <ele>1198</ele>
        <time>2019-06-19T21:46:48Z</time>
      </trkpt>
      <trkpt lat="45.19089" lon="5.53466">
        <ele>1198</ele>
        <time>2019-06-19T21:46:53Z</time>
      </trkpt>
      <trkpt lat="45.19112" lon="5.53504">
        <ele>1199</ele>
        <time>2019-06-19T21:47:01Z</time>
      </trkpt>
      <trkpt lat="45.19109" lon="5.53505">
        <ele>1199</ele>
        <time>2019-06-19T21:47:02Z</time>
      </trkpt>
      <trkpt lat="45.19131" lon="5.53508">
        <ele>1203</ele>
        <time>2019-06-19T21:47:07Z</time>
      </trkpt>
      <trkpt lat="45.1915" lon="5.53502">
        <ele>1209</ele>
        <time>2019-06-19T21:47:12Z</time>
      </trkpt>
      <trkpt lat="45.19152" lon="5.53498">
        <ele>1210</ele>
        <time>2019-06-19T21:47:12Z</time>
      </trkpt>
      <trkpt lat="45.19204" lon="5.53523">
        <ele>1217</ele>
        <time>2019-06-19T21:47:25Z</time>
      </trkpt>
      <trkpt lat="45.19228" lon="5.53519">
        <ele>1222</ele>
        <time>2019-06-19T21:47:31Z</time>
      </trkpt>
      <trkpt lat="45.19245" lon="5.53522">
        <ele>1225</ele>
        <time>2019-06-19T21:47:35Z</time>
      </trkpt>
      <trkpt lat="45.19269" lon="5.53537">
        <ele>1227</ele>
        <time>2019-06-19T21:47:41Z</time>
      </trkpt>
      <trkpt lat="45.19278" lon="5.53535">
        <ele>1229</ele>
        <time>2019-06-19T21:47:43Z</time>
      </trkpt>
      <trkpt lat="45.1932" lon="5.53546">
        <ele>1235</ele>
        <time>2019-06-19T21:47:53Z</time>
      </trkpt>
      <trkpt lat="45.19337" lon="5.53567">
        <ele>1235</ele>
        <time>2019-06-19T21:47:58Z</time>
      </trkpt>
      <trkpt lat="45.19358" lon="5.536">
        <ele>1232</ele>
        <time>2019-06-19T21:48:06Z</time>
      </trkpt>
      <trkpt lat="45.19365" lon="5.53603">
        <ele>1233</ele>
        <time>2019-06-19T21:48:07Z</time>
      </trkpt>
      <trkpt lat="45.19387" lon="5.53583">
        <ele>1241</ele>
        <time>2019-06-19T21:48:13Z</time>
      </trkpt>
      <trkpt lat="45.19408" lon="5.53579">
        <ele>1245</ele>
        <time>2019-06-19T21:48:18Z</time>
      </trkpt>
      <trkpt lat="45.19467" lon="5.53593">
        <ele>1247</ele>
        <time>2019-06-19T21:48:32Z</time>
      </trkpt>
      <trkpt lat="45.19474" lon="5.53598">
        <ele>1247</ele>
        <time>2019-06-19T21:48:34Z</time>
      </trkpt>
      <trkpt lat="45.19484" lon="5.536">
        <ele>1247</ele>
        <time>2019-06-19T21:48:37Z</time>
      </trkpt>
      <trkpt lat="45.19516" lon="5.53615">
        <ele>1246</ele>
        <time>2019-06-19T21:48:44Z</time>
      </trkpt>
      <trkpt lat="45.19531" lon="5.53625">
        <ele>1244</ele>
        <time>2019-06-19T21:48:48Z</time>
      </trkpt>
      <trkpt lat="45.19551" lon="5.53644">
        <ele>1241</ele>
        <time>2019-06-19T21:48:54Z</time>
      </trkpt>
      <trkpt lat="45.19578" lon="5.53665">
        <ele>1238</ele>
        <time>2019-06-19T21:49:01Z</time>
      </trkpt>
      <trkpt lat="45.19587" lon="5.53682">
        <ele>1237</ele>
        <time>2019-06-19T21:49:05Z</time>
      </trkpt>
      <trkpt lat="45.19586" lon="5.53692">
        <ele>1236</ele>
        <time>2019-06-19T21:49:06Z</time>
      </trkpt>
      <trkpt lat="45.19592" lon="5.53695">
        <ele>1237</ele>
        <time>2019-06-19T21:49:08Z</time>
      </trkpt>
      <trkpt lat="45.19606" lon="5.53714">
        <ele>1237</ele>
        <time>2019-06-19T21:49:12Z</time>
      </trkpt>
      <trkpt lat="45.196" lon="5.53731">
        <ele>1235</ele>
        <time>2019-06-19T21:49:15Z</time>
      </trkpt>
      <trkpt lat="45.19602" lon="5.53734">
        <ele>1235</ele>
        <time>2019-06-19T21:49:16Z</time>
      </trkpt>
      <trkpt lat="45.19616" lon="5.53749">
        <ele>1235</ele>
        <time>2019-06-19T21:49:20Z</time>
      </trkpt>
      <trkpt lat="45.19645" lon="5.53767">
        <ele>1240</ele>
        <time>2019-06-19T21:49:28Z</time>
      </trkpt>
      <trkpt lat="45.19657" lon="5.53782">
        <ele>1243</ele>
        <time>2019-06-19T21:49:31Z</time>
      </trkpt>
      <trkpt lat="45.19657" lon="5.53744">
        <ele>1241</ele>
        <time>2019-06-19T21:49:38Z</time>
      </trkpt>
      <trkpt lat="45.19664" lon="5.53737">
        <ele>1243</ele>
        <time>2019-06-19T21:49:40Z</time>
      </trkpt>
      <trkpt lat="45.1967" lon="5.53738">
        <ele>1244</ele>
        <time>2019-06-19T21:49:41Z</time>
      </trkpt>
      <trkpt lat="45.1968" lon="5.53749">
        <ele>1244</ele>
        <time>2019-06-19T21:49:44Z</time>
      </trkpt>
      <trkpt lat="45.19704" lon="5.53759">
        <ele>1248</ele>
        <time>2019-06-19T21:49:50Z</time>
      </trkpt>
      <trkpt lat="45.1971" lon="5.53764">
        <ele>1250</ele>
        <time>2019-06-19T21:49:51Z</time>
      </trkpt>
      <trkpt lat="45.19722" lon="5.53769">
        <ele>1252</ele>
        <time>2019-06-19T21:49:54Z</time>
      </trkpt>
      <trkpt lat="45.19741" lon="5.5377">
        <ele>1255</ele>
        <time>2019-06-19T21:49:59Z</time>
      </trkpt>
      <trkpt lat="45.19762" lon="5.53761">
        <ele>1257</ele>
        <time>2019-06-19T21:50:04Z</time>
      </trkpt>
      <trkpt lat="45.19863" lon="5.53765">
        <ele>1269</ele>
        <time>2019-06-19T21:50:27Z</time>
      </trkpt>
      <trkpt lat="45.19933" lon="5.53744">
        <ele>1277</ele>
        <time>2019-06-19T21:50:44Z</time>
      </trkpt>
      <trkpt lat="45.19997" lon="5.53742">
        <ele>1286</ele>
        <time>2019-06-19T21:50:59Z</time>
      </trkpt>
      <trkpt lat="45.20008" lon="5.53728">
        <ele>1291</ele>
        <time>2019-06-19T21:51:03Z</time>
      </trkpt>
      <trkpt lat="45.20023" lon="5.53733">
        <ele>1293</ele>
        <time>2019-06-19T21:51:06Z</time>
      </trkpt>
      <trkpt lat="45.20032" lon="5.53739">
        <ele>1293</ele>
        <time>2019-06-19T21:51:08Z</time>
      </trkpt>
      <trkpt lat="45.20055" lon="5.53777">
        <ele>1296</ele>
        <time>2019-06-19T21:51:17Z</time>
      </trkpt>
      <trkpt lat="45.20083" lon="5.53812">
        <ele>1299</ele>
        <time>2019-06-19T21:51:25Z</time>
      </trkpt>
      <trkpt lat="45.20117" lon="5.53872">
        <ele>1305</ele>
        <time>2019-06-19T21:51:38Z</time>
      </trkpt>
      <trkpt lat="45.20155" lon="5.53899">
        <ele>1305</ele>
        <time>2019-06-19T21:51:48Z</time>
      </trkpt>
      <trkpt lat="45.20173" lon="5.53907">
        <ele>1305</ele>
        <time>2019-06-19T21:51:52Z</time>
      </trkpt>
      <trkpt lat="45.202" lon="5.53929">
        <ele>1309</ele>
        <time>2019-06-19T21:52:00Z</time>
      </trkpt>
      <trkpt lat="45.20252" lon="5.53924">
        <ele>1313</ele>
        <time>2019-06-19T21:52:12Z</time>
      </trkpt>
      <trkpt lat="45.20268" lon="5.53916">
        <ele>1315</ele>
        <time>2019-06-19T21:52:16Z</time>
      </trkpt>
      <trkpt lat="45.20282" lon="5.53918">
        <ele>1318</ele>
        <time>2019-06-19T21:52:19Z</time>
      </trkpt>
      <trkpt lat="45.203" lon="5.53907">
        <ele>1323</ele>
        <time>2019-06-19T21:52:24Z</time>
      </trkpt>
      <trkpt lat="45.20334" lon="5.53905">
        <ele>1330</ele>
        <time>2019-06-19T21:52:32Z</time>
      </trkpt>
      <trkpt lat="45.20336" lon="5.53911">
        <ele>1330</ele>
        <time>2019-06-19T21:52:33Z</time>
      </trkpt>
      <trkpt lat="45.20334" lon="5.53924">
        <ele>1330</ele>
        <time>2019-06-19T21:52:35Z</time>
      </trkpt>
      <trkpt lat="45.2032" lon="5.5395">
        <ele>1331</ele>
        <time>2019-06-19T21:52:40Z</time>
      </trkpt>
      <trkpt lat="45.20296" lon="5.53981">
        <ele>1331</ele>
        <time>2019-06-19T21:52:48Z</time>
      </trkpt>
      <trkpt lat="45.20281" lon="5.54011">
        <ele>1334</ele>
        <time>2019-06-19T21:52:54Z</time>
      </trkpt>
      <trkpt lat="45.20263" lon="5.54036">
        <ele>1336</ele>
        <time>2019-06-19T21:53:00Z</time>
      </trkpt>
      <trkpt lat="45.2015" lon="5.54077">
        <ele>1341</ele>
        <time>2019-06-19T21:53:27Z</time>
      </trkpt>
      <trkpt lat="45.20134" lon="5.54079">
        <ele>1342</ele>
        <time>2019-06-19T21:53:31Z</time>
      </trkpt>
      <trkpt lat="45.20085" lon="5.5408">
        <ele>1345</ele>
        <time>2019-06-19T21:53:42Z</time>
      </trkpt>
      <trkpt lat="45.20062" lon="5.54073">
        <ele>1343</ele>
        <time>2019-06-19T21:53:48Z</time>
      </trkpt>
      <trkpt lat="45.2003" lon="5.54053">
        <ele>1338</ele>
        <time>2019-06-19T21:53:56Z</time>
      </trkpt>
      <trkpt lat="45.20006" lon="5.5405">
        <ele>1337</ele>
        <time>2019-06-19T21:54:02Z</time>
      </trkpt>
      <trkpt lat="45.19949" lon="5.5409">
        <ele>1342</ele>
        <time>2019-06-19T21:54:16Z</time>
      </trkpt>
      <trkpt lat="45.19886" lon="5.54114">
        <ele>1338</ele>
        <time>2019-06-19T21:54:32Z</time>
      </trkpt>
      <trkpt lat="45.19822" lon="5.54177">
        <ele>1334</ele>
        <time>2019-06-19T21:54:50Z</time>
      </trkpt>
      <trkpt lat="45.19807" lon="5.54206">
        <ele>1333</ele>
        <time>2019-06-19T21:54:56Z</time>
      </trkpt>
      <trkpt lat="45.19785" lon="5.54232">
        <ele>1329</ele>
        <time>2019-06-19T21:55:02Z</time>
      </trkpt>
      <trkpt lat="45.19776" lon="5.54276">
        <ele>1328</ele>
        <time>2019-06-19T21:55:10Z</time>
      </trkpt>
      <trkpt lat="45.19803" lon="5.54377">
        <ele>1340</ele>
        <time>2019-06-19T21:55:28Z</time>
      </trkpt>
      <trkpt lat="45.19788" lon="5.54416">
        <ele>1336</ele>
        <time>2019-06-19T21:55:35Z</time>
      </trkpt>
      <trkpt lat="45.19744" lon="5.54489">
        <ele>1330</ele>
        <time>2019-06-19T21:55:51Z</time>
      </trkpt>
      <trkpt lat="45.19671" lon="5.54567">
        <ele>1327</ele>
        <time>2019-06-19T21:56:12Z</time>
      </trkpt>
      <trkpt lat="45.19664" lon="5.54606">
        <ele>1328</ele>
        <time>2019-06-19T21:56:19Z</time>
      </trkpt>
      <trkpt lat="45.19666" lon="5.54666">
        <ele>1329</ele>
        <time>2019-06-19T21:56:29Z</time>
      </trkpt>
      <trkpt lat="45.19663" lon="5.547">
        <ele>1328</ele>
        <time>2019-06-19T21:56:34Z</time>
      </trkpt>
      <trkpt lat="45.19683" lon="5.54742">
        <ele>1331</ele>
        <time>2019-06-19T21:56:43Z</time>
      </trkpt>
      <trkpt lat="45.19703" lon="5.54763">
        <ele>1333</ele>
        <time>2019-06-19T21:56:49Z</time>
      </trkpt>
      <trkpt lat="45.19709" lon="5.54793">
        <ele>1333</ele>
        <time>2019-06-19T21:56:54Z</time>
      </trkpt>
      <trkpt lat="45.1973" lon="5.54743">
        <ele>1337</ele>
        <time>2019-06-19T21:57:03Z</time>
      </trkpt>
      <trkpt lat="45.19723" lon="5.54719">
        <ele>1337</ele>
        <time>2019-06-19T21:57:07Z</time>
      </trkpt>
      <trkpt lat="45.19705" lon="5.54696">
        <ele>1335</ele>
        <time>2019-06-19T21:57:13Z</time>
      </trkpt>
      <trkpt lat="45.19706" lon="5.54666">
        <ele>1337</ele>
        <time>2019-06-19T21:57:18Z</time>
      </trkpt>
      <trkpt lat="45.1973" lon="5.54597">
        <ele>1340</ele>
        <time>2019-06-19T21:57:31Z</time>
      </trkpt>
      <trkpt lat="45.19794" lon="5.54572">
        <ele>1349</ele>
        <time>2019-06-19T21:57:46Z</time>
      </trkpt>
      <trkpt lat="45.19829" lon="5.54498">
        <ele>1355</ele>
        <time>2019-06-19T21:58:01Z</time>
      </trkpt>
      <trkpt lat="45.19877" lon="5.54414">
        <ele>1361</ele>
        <time>2019-06-19T21:58:19Z</time>
      </trkpt>
      <trkpt lat="45.19887" lon="5.54337">
        <ele>1362</ele>
        <time>2019-06-19T21:58:32Z</time>
      </trkpt>
      <trkpt lat="45.19911" lon="5.54295">
        <ele>1366</ele>
        <time>2019-06-19T21:58:40Z</time>
      </trkpt>
      <trkpt lat="45.19932" lon="5.54294">
        <ele>1370</ele>
        <time>2019-06-19T21:58:45Z</time>
      </trkpt>
      <trkpt lat="45.19936" lon="5.54345">
        <ele>1374</ele>
        <time>2019-06-19T21:58:54Z</time>
      </trkpt>
      <trkpt lat="45.19957" lon="5.54369">
        <ele>1379</ele>
        <time>2019-06-19T21:59:00Z</time>
      </trkpt>
      <trkpt lat="45.19977" lon="5.54356">
        <ele>1382</ele>
        <time>2019-06-19T21:59:05Z</time>
      </trkpt>
      <trkpt lat="45.19977" lon="5.54303">
        <ele>1379</ele>
        <time>2019-06-19T21:59:14Z</time>
      </trkpt>
      <trkpt lat="45.20024" lon="5.54275">
        <ele>1384</ele>
        <time>2019-06-19T21:59:26Z</time>
      </trkpt>
      <trkpt lat="45.20075" lon="5.54281">
        <ele>1392</ele>
        <time>2019-06-19T21:59:38Z</time>
      </trkpt>
      <trkpt lat="45.20125" lon="5.54315">
        <ele>1400</ele>
        <time>2019-06-19T21:59:51Z</time>
      </trkpt>
      <trkpt lat="45.20203" lon="5.54306">
        <ele>1401</ele>
        <time>2019-06-19T22:00:09Z</time>
      </trkpt>
      <trkpt lat="45.2024" lon="5.5433">
        <ele>1408</ele>
        <time>2019-06-19T22:00:19Z</time>
      </trkpt>
      <trkpt lat="45.20264" lon="5.54375">
        <ele>1417</ele>
        <time>2019-06-19T22:00:28Z</time>
      </trkpt>
      <trkpt lat="45.20314" lon="5.54398">
        <ele>1421</ele>
        <time>2019-06-19T22:00:40Z</time>
      </trkpt>
      <trkpt lat="45.20195" lon="5.54482">
        <ele>1426</ele>
        <time>2019-06-19T22:01:11Z</time>
      </trkpt>
      <trkpt lat="45.20244" lon="5.54522">
        <ele>1425</ele>
        <time>2019-06-19T22:01:24Z</time>
      </trkpt>
      <trkpt lat="45.20267" lon="5.54519">
        <ele>1425</ele>
        <time>2019-06-19T22:01:30Z</time>
      </trkpt>
      <trkpt lat="45.20269" lon="5.54527">
        <ele>1424</ele>
        <time>2019-06-19T22:01:31Z</time>
      </trkpt>
      <trkpt lat="45.20256" lon="5.54564">
        <ele>1421</ele>
        <time>2019-06-19T22:01:38Z</time>
      </trkpt>
      <trkpt lat="45.20241" lon="5.54593">
        <ele>1416</ele>
        <time>2019-06-19T22:01:44Z</time>
      </trkpt>
      <trkpt lat="45.20196" lon="5.54611">
        <ele>1408</ele>
        <time>2019-06-19T22:01:55Z</time>
      </trkpt>
      <trkpt lat="45.20218" lon="5.54665">
        <ele>1398</ele>
        <time>2019-06-19T22:02:05Z</time>
      </trkpt>
      <trkpt lat="45.20215" lon="5.54672">
        <ele>1397</ele>
        <time>2019-06-19T22:02:06Z</time>
      </trkpt>
      <trkpt lat="45.20164" lon="5.54664">
        <ele>1390</ele>
        <time>2019-06-19T22:02:18Z</time>
      </trkpt>
      <trkpt lat="45.20148" lon="5.54654">
        <ele>1389</ele>
        <time>2019-06-19T22:02:22Z</time>
      </trkpt>
      <trkpt lat="45.20148" lon="5.54667">
        <ele>1386</ele>
        <time>2019-06-19T22:02:25Z</time>
      </trkpt>
      <trkpt lat="45.20146" lon="5.54669">
        <ele>1385</ele>
        <time>2019-06-19T22:02:25Z</time>
      </trkpt>
      <trkpt lat="45.201" lon="5.5465">
        <ele>1380</ele>
        <time>2019-06-19T22:02:36Z</time>
      </trkpt>
      <trkpt lat="45.201" lon="5.54655">
        <ele>1378</ele>
        <time>2019-06-19T22:02:37Z</time>
      </trkpt>
      <trkpt lat="45.20127" lon="5.54666">
        <ele>1381</ele>
        <time>2019-06-19T22:02:44Z</time>
      </trkpt>
      <trkpt lat="45.20127" lon="5.54701">
        <ele>1374</ele>
        <time>2019-06-19T22:02:50Z</time>
      </trkpt>
      <trkpt lat="45.20119" lon="5.54687">
        <ele>1375</ele>
        <time>2019-06-19T22:02:52Z</time>
      </trkpt>
      <trkpt lat="45.20114" lon="5.54683">
        <ele>1374</ele>
        <time>2019-06-19T22:02:54Z</time>
      </trkpt>
      <trkpt lat="45.20057" lon="5.54652">
        <ele>1370</ele>
        <time>2019-06-19T22:03:08Z</time>
      </trkpt>
      <trkpt lat="45.20058" lon="5.54656">
        <ele>1369</ele>
        <time>2019-06-19T22:03:09Z</time>
      </trkpt>
      <trkpt lat="45.20072" lon="5.54673">
        <ele>1367</ele>
        <time>2019-06-19T22:03:13Z</time>
      </trkpt>
      <trkpt lat="45.20083" lon="5.54697">
        <ele>1364</ele>
        <time>2019-06-19T22:03:18Z</time>
      </trkpt>
      <trkpt lat="45.20081" lon="5.54701">
        <ele>1363</ele>
        <time>2019-06-19T22:03:19Z</time>
      </trkpt>
      <trkpt lat="45.2007" lon="5.54698">
        <ele>1361</ele>
        <time>2019-06-19T22:03:21Z</time>
      </trkpt>
      <trkpt lat="45.20069" lon="5.54703">
        <ele>1359</ele>
        <time>2019-06-19T22:03:22Z</time>
      </trkpt>
      <trkpt lat="45.20108" lon="5.54754">
        <ele>1358</ele>
        <time>2019-06-19T22:03:34Z</time>
      </trkpt>
      <trkpt lat="45.20129" lon="5.5483">
        <ele>1351</ele>
        <time>2019-06-19T22:03:48Z</time>
      </trkpt>
      <trkpt lat="45.20136" lon="5.54896">
        <ele>1347</ele>
        <time>2019-06-19T22:03:59Z</time>
      </trkpt>
      <trkpt lat="45.20129" lon="5.54905">
        <ele>1345</ele>
        <time>2019-06-19T22:04:01Z</time>
      </trkpt>
      <trkpt lat="45.20126" lon="5.54978">
        <ele>1336</ele>
        <time>2019-06-19T22:04:13Z</time>
      </trkpt>
      <trkpt lat="45.20079" lon="5.55018">
        <ele>1324</ele>
        <time>2019-06-19T22:04:26Z</time>
      </trkpt>
      <trkpt lat="45.20052" lon="5.55026">
        <ele>1319</ele>
        <time>2019-06-19T22:04:32Z</time>
      </trkpt>
      <trkpt lat="45.20063" lon="5.55023">
        <ele>1321</ele>
        <time>2019-06-19T22:04:35Z</time>
      </trkpt>
      <trkpt lat="45.20055" lon="5.55026">
        <ele>1319</ele>
        <time>2019-06-19T22:04:37Z</time>
      </trkpt>
      <trkpt lat="45.20052" lon="5.55025">
        <ele>1319</ele>
        <time>2019-06-19T22:04:38Z</time>
      </trkpt>
      <trkpt lat="45.20043" lon="5.55009">
        <ele>1318</ele>
        <time>2019-06-19T22:04:41Z</time>
      </trkpt>
      <trkpt lat="45.2005" lon="5.54995">
        <ele>1321</ele>
        <time>2019-06-19T22:04:44Z</time>
      </trkpt>
      <trkpt lat="45.20031" lon="5.54985">
        <ele>1318</ele>
        <time>2019-06-19T22:04:49Z</time>
      </trkpt>
      <trkpt lat="45.2002" lon="5.54984">
        <ele>1315</ele>
        <time>2019-06-19T22:04:51Z</time>
      </trkpt>
      <trkpt lat="45.20013" lon="5.54994">
        <ele>1313</ele>
        <time>2019-06-19T22:04:53Z</time>
      </trkpt>
      <trkpt lat="45.1999" lon="5.55003">
        <ele>1308</ele>
        <time>2019-06-19T22:04:59Z</time>
      </trkpt>
      <trkpt lat="45.19979" lon="5.55016">
        <ele>1306</ele>
        <time>2019-06-19T22:05:02Z</time>
      </trkpt>
      <trkpt lat="45.19968" lon="5.55063">
        <ele>1303</ele>
        <time>2019-06-19T22:05:11Z</time>
      </trkpt>
      <trkpt lat="45.19967" lon="5.55079">
        <ele>1302</ele>
        <time>2019-06-19T22:05:13Z</time>
      </trkpt>
      <trkpt lat="45.19953" lon="5.55074">
        <ele>1300</ele>
        <time>2019-06-19T22:05:17Z</time>
      </trkpt>
      <trkpt lat="45.19949" lon="5.55068">
        <ele>1299</ele>
        <time>2019-06-19T22:05:18Z</time>
      </trkpt>
      <trkpt lat="45.19942" lon="5.5507">
        <ele>1298</ele>
        <time>2019-06-19T22:05:20Z</time>
      </trkpt>
      <trkpt lat="45.1993" lon="5.55064">
        <ele>1296</ele>
        <time>2019-06-19T22:05:23Z</time>
      </trkpt>
      <trkpt lat="45.19924" lon="5.55041">
        <ele>1297</ele>
        <time>2019-06-19T22:05:27Z</time>
      </trkpt>
      <trkpt lat="45.19931" lon="5.55006">
        <ele>1300</ele>
        <time>2019-06-19T22:05:33Z</time>
      </trkpt>
      <trkpt lat="45.19948" lon="5.54982">
        <ele>1304</ele>
        <time>2019-06-19T22:05:38Z</time>
      </trkpt>
      <trkpt lat="45.19963" lon="5.54966">
        <ele>1307</ele>
        <time>2019-06-19T22:05:43Z</time>
      </trkpt>
      <trkpt lat="45.19993" lon="5.54918">
        <ele>1315</ele>
        <time>2019-06-19T22:05:53Z</time>
      </trkpt>
      <trkpt lat="45.19975" lon="5.54883">
        <ele>1315</ele>
        <time>2019-06-19T22:06:00Z</time>
      </trkpt>
      <trkpt lat="45.19965" lon="5.54857">
        <ele>1316</ele>
        <time>2019-06-19T22:06:05Z</time>
      </trkpt>
      <trkpt lat="45.19958" lon="5.54795">
        <ele>1322</ele>
        <time>2019-06-19T22:06:15Z</time>
      </trkpt>
      <trkpt lat="45.19953" lon="5.54782">
        <ele>1324</ele>
        <time>2019-06-19T22:06:18Z</time>
      </trkpt>
      <trkpt lat="45.19946" lon="5.54775">
        <ele>1324</ele>
        <time>2019-06-19T22:06:20Z</time>
      </trkpt>
      <trkpt lat="45.19933" lon="5.54773">
        <ele>1323</ele>
        <time>2019-06-19T22:06:23Z</time>
      </trkpt>
      <trkpt lat="45.19929" lon="5.54775">
        <ele>1322</ele>
        <time>2019-06-19T22:06:24Z</time>
      </trkpt>
      <trkpt lat="45.19875" lon="5.54814">
        <ele>1322</ele>
        <time>2019-06-19T22:06:38Z</time>
      </trkpt>
      <trkpt lat="45.19836" lon="5.54855">
        <ele>1321</ele>
        <time>2019-06-19T22:06:49Z</time>
      </trkpt>
      <trkpt lat="45.19796" lon="5.54877">
        <ele>1322</ele>
        <time>2019-06-19T22:06:59Z</time>
      </trkpt>
      <trkpt lat="45.19753" lon="5.54912">
        <ele>1322</ele>
        <time>2019-06-19T22:07:11Z</time>
      </trkpt>
      <trkpt lat="45.19735" lon="5.54919">
        <ele>1322</ele>
        <time>2019-06-19T22:07:15Z</time>
      </trkpt>
      <trkpt lat="45.19681" lon="5.54906">
        <ele>1324</ele>
        <time>2019-06-19T22:07:28Z</time>
      </trkpt>
      <trkpt lat="45.19678" lon="5.54877">
        <ele>1327</ele>
        <time>2019-06-19T22:07:33Z</time>
      </trkpt>
      <trkpt lat="45.1968" lon="5.54875">
        <ele>1327</ele>
        <time>2019-06-19T22:07:34Z</time>
      </trkpt>
      <trkpt lat="45.19671" lon="5.54865">
        <ele>1327</ele>
        <time>2019-06-19T22:07:36Z</time>
      </trkpt>
      <trkpt lat="45.1965" lon="5.54861">
        <ele>1325</ele>
        <time>2019-06-19T22:07:41Z</time>
      </trkpt>
      <trkpt lat="45.19617" lon="5.54861">
        <ele>1320</ele>
        <time>2019-06-19T22:07:49Z</time>
      </trkpt>
      <trkpt lat="45.19591" lon="5.54875">
        <ele>1315</ele>
        <time>2019-06-19T22:07:55Z</time>
      </trkpt>
      <trkpt lat="45.19584" lon="5.54871">
        <ele>1314</ele>
        <time>2019-06-19T22:07:57Z</time>
      </trkpt>
      <trkpt lat="45.19573" lon="5.5487">
        <ele>1312</ele>
        <time>2019-06-19T22:08:00Z</time>
      </trkpt>
      <trkpt lat="45.19571" lon="5.54882">
        <ele>1311</ele>
        <time>2019-06-19T22:08:02Z</time>
      </trkpt>
      <trkpt lat="45.19555" lon="5.54882">
        <ele>1308</ele>
        <time>2019-06-19T22:08:05Z</time>
      </trkpt>
      <trkpt lat="45.19539" lon="5.5487">
        <ele>1306</ele>
        <time>2019-06-19T22:08:10Z</time>
      </trkpt>
      <trkpt lat="45.19495" lon="5.54846">
        <ele>1303</ele>
        <time>2019-06-19T22:08:21Z</time>
      </trkpt>
      <trkpt lat="45.19484" lon="5.54836">
        <ele>1303</ele>
        <time>2019-06-19T22:08:24Z</time>
      </trkpt>
      <trkpt lat="45.19475" lon="5.54833">
        <ele>1303</ele>
        <time>2019-06-19T22:08:26Z</time>
      </trkpt>
      <trkpt lat="45.19465" lon="5.54835">
        <ele>1302</ele>
        <time>2019-06-19T22:08:28Z</time>
      </trkpt>
      <trkpt lat="45.19465" lon="5.54845">
        <ele>1301</ele>
        <time>2019-06-19T22:08:30Z</time>
      </trkpt>
      <trkpt lat="45.19468" lon="5.54848">
        <ele>1300</ele>
        <time>2019-06-19T22:08:31Z</time>
      </trkpt>
      <trkpt lat="45.19467" lon="5.54854">
        <ele>1299</ele>
        <time>2019-06-19T22:08:32Z</time>
      </trkpt>
      <trkpt lat="45.19463" lon="5.54858">
        <ele>1298</ele>
        <time>2019-06-19T22:08:33Z</time>
      </trkpt>
      <trkpt lat="45.19458" lon="5.54859">
        <ele>1298</ele>
        <time>2019-06-19T22:08:34Z</time>
      </trkpt>
      <trkpt lat="45.1945" lon="5.54856">
        <ele>1298</ele>
        <time>2019-06-19T22:08:36Z</time>
      </trkpt>
      <trkpt lat="45.19445" lon="5.54845">
        <ele>1299</ele>
        <time>2019-06-19T22:08:38Z</time>
      </trkpt>
      <trkpt lat="45.19413" lon="5.54827">
        <ele>1299</ele>
        <time>2019-06-19T22:08:46Z</time>
      </trkpt>
      <trkpt lat="45.19412" lon="5.5481">
        <ele>1299</ele>
        <time>2019-06-19T22:08:49Z</time>
      </trkpt>
      <trkpt lat="45.1941" lon="5.54807">
        <ele>1299</ele>
        <time>2019-06-19T22:08:50Z</time>
      </trkpt>
      <trkpt lat="45.19392" lon="5.54808">
        <ele>1299</ele>
        <time>2019-06-19T22:08:54Z</time>
      </trkpt>
      <trkpt lat="45.19392" lon="5.5481">
        <ele>1299</ele>
        <time>2019-06-19T22:08:54Z</time>
      </trkpt>
      <trkpt lat="45.19388" lon="5.54806">
        <ele>1299</ele>
        <time>2019-06-19T22:08:55Z</time>
      </trkpt>
      <trkpt lat="45.19404" lon="5.54802">
        <ele>1299</ele>
        <time>2019-06-19T22:08:59Z</time>
      </trkpt>
      <trkpt lat="45.1941" lon="5.54804">
        <ele>1299</ele>
        <time>2019-06-19T22:09:01Z</time>
      </trkpt>
      <trkpt lat="45.19429" lon="5.54802">
        <ele>1300</ele>
        <time>2019-06-19T22:09:05Z</time>
      </trkpt>
      <trkpt lat="45.19428" lon="5.54798">
        <ele>1300</ele>
        <time>2019-06-19T22:09:06Z</time>
      </trkpt>
      <trkpt lat="45.19381" lon="5.54779">
        <ele>1299</ele>
        <time>2019-06-19T22:09:17Z</time>
      </trkpt>
      <trkpt lat="45.19358" lon="5.54766">
        <ele>1298</ele>
        <time>2019-06-19T22:09:23Z</time>
      </trkpt>
      <trkpt lat="45.19357" lon="5.54738">
        <ele>1295</ele>
        <time>2019-06-19T22:09:28Z</time>
      </trkpt>
      <trkpt lat="45.19368" lon="5.54703">
        <ele>1291</ele>
        <time>2019-06-19T22:09:34Z</time>
      </trkpt>
      <trkpt lat="45.19368" lon="5.54696">
        <ele>1290</ele>
        <time>2019-06-19T22:09:35Z</time>
      </trkpt>
      <trkpt lat="45.19386" lon="5.54683">
        <ele>1290</ele>
        <time>2019-06-19T22:09:40Z</time>
      </trkpt>
      <trkpt lat="45.19415" lon="5.54646">
        <ele>1287</ele>
        <time>2019-06-19T22:09:49Z</time>
      </trkpt>
      <trkpt lat="45.19432" lon="5.54617">
        <ele>1284</ele>
        <time>2019-06-19T22:09:55Z</time>
      </trkpt>
      <trkpt lat="45.19451" lon="5.546">
        <ele>1285</ele>
        <time>2019-06-19T22:10:00Z</time>
      </trkpt>
      <trkpt lat="45.19456" lon="5.54587">
        <ele>1283</ele>
        <time>2019-06-19T22:10:03Z</time>
      </trkpt>
      <trkpt lat="45.19472" lon="5.5456">
        <ele>1282</ele>
        <time>2019-06-19T22:10:09Z</time>
      </trkpt>
      <trkpt lat="45.1949" lon="5.54505">
        <ele>1276</ele>
        <time>2019-06-19T22:10:19Z</time>
      </trkpt>
      <trkpt lat="45.19506" lon="5.54477">
        <ele>1276</ele>
        <time>2019-06-19T22:10:24Z</time>
      </trkpt>
      <trkpt lat="45.19508" lon="5.54441">
        <ele>1271</ele>
        <time>2019-06-19T22:10:30Z</time>
      </trkpt>
      <trkpt lat="45.1953" lon="5.54375">
        <ele>1267</ele>
        <time>2019-06-19T22:10:42Z</time>
      </trkpt>
      <trkpt lat="45.19561" lon="5.54314">
        <ele>1268</ele>
        <time>2019-06-19T22:10:55Z</time>
      </trkpt>
      <trkpt lat="45.19558" lon="5.54308">
        <ele>1267</ele>
        <time>2019-06-19T22:10:56Z</time>
      </trkpt>
      <trkpt lat="45.19551" lon="5.54307">
        <ele>1265</ele>
        <time>2019-06-19T22:10:58Z</time>
      </trkpt>
      <trkpt lat="45.19536" lon="5.54288">
        <ele>1260</ele>
        <time>2019-06-19T22:11:02Z</time>
      </trkpt>
      <trkpt lat="45.19513" lon="5.54212">
        <ele>1249</ele>
        <time>2019-06-19T22:11:16Z</time>
      </trkpt>
      <trkpt lat="45.19514" lon="5.5418">
        <ele>1248</ele>
        <time>2019-06-19T22:11:21Z</time>
      </trkpt>
      <trkpt lat="45.19528" lon="5.54151">
        <ele>1251</ele>
        <time>2019-06-19T22:11:27Z</time>
      </trkpt>
      <trkpt lat="45.19525" lon="5.54113">
        <ele>1251</ele>
        <time>2019-06-19T22:11:33Z</time>
      </trkpt>
      <trkpt lat="45.19512" lon="5.54086">
        <ele>1249</ele>
        <time>2019-06-19T22:11:39Z</time>
      </trkpt>
      <trkpt lat="45.1951" lon="5.54065">
        <ele>1248</ele>
        <time>2019-06-19T22:11:42Z</time>
      </trkpt>
      <trkpt lat="45.19518" lon="5.54033">
        <ele>1250</ele>
        <time>2019-06-19T22:11:48Z</time>
      </trkpt>
      <trkpt lat="45.19523" lon="5.53963">
        <ele>1247</ele>
        <time>2019-06-19T22:11:59Z</time>
      </trkpt>
      <trkpt lat="45.19522" lon="5.53944">
        <ele>1245</ele>
        <time>2019-06-19T22:12:02Z</time>
      </trkpt>
      <trkpt lat="45.19525" lon="5.53933">
        <ele>1244</ele>
        <time>2019-06-19T22:12:04Z</time>
      </trkpt>
      <trkpt lat="45.19527" lon="5.53928">
        <ele>1244</ele>
        <time>2019-06-19T22:12:05Z</time>
      </trkpt>
      <trkpt lat="45.19544" lon="5.5391">
        <ele>1244</ele>
        <time>2019-06-19T22:12:10Z</time>
      </trkpt>
      <trkpt lat="45.19553" lon="5.53905">
        <ele>1244</ele>
        <time>2019-06-19T22:12:13Z</time>
      </trkpt>
      <trkpt lat="45.19575" lon="5.53902">
        <ele>1247</ele>
        <time>2019-06-19T22:12:18Z</time>
      </trkpt>
      <trkpt lat="45.196" lon="5.53895">
        <ele>1249</ele>
        <time>2019-06-19T22:12:24Z</time>
      </trkpt>
      <trkpt lat="45.19642" lon="5.53876">
        <ele>1252</ele>
        <time>2019-06-19T22:12:34Z</time>
      </trkpt>
      <trkpt lat="45.19653" lon="5.53853">
        <ele>1249</ele>
        <time>2019-06-19T22:12:39Z</time>
      </trkpt>
      <trkpt lat="45.1965" lon="5.53839">
        <ele>1246</ele>
        <time>2019-06-19T22:12:41Z</time>
      </trkpt>
      <trkpt lat="45.19632" lon="5.53836">
        <ele>1243</ele>
        <time>2019-06-19T22:12:45Z</time>
      </trkpt>
      <trkpt lat="45.19563" lon="5.53861">
        <ele>1238</ele>
        <time>2019-06-19T22:13:02Z</time>
      </trkpt>
      <trkpt lat="45.19548" lon="5.53863">
        <ele>1237</ele>
        <time>2019-06-19T22:13:05Z</time>
      </trkpt>
      <trkpt lat="45.19531" lon="5.53872">
        <ele>1236</ele>
        <time>2019-06-19T22:13:10Z</time>
      </trkpt>
      <trkpt lat="45.19506" lon="5.53871">
        <ele>1233</ele>
        <time>2019-06-19T22:13:15Z</time>
      </trkpt>
      <trkpt lat="45.19477" lon="5.53878">
        <ele>1231</ele>
        <time>2019-06-19T22:13:22Z</time>
      </trkpt>
      <trkpt lat="45.19461" lon="5.53894">
        <ele>1232</ele>
        <time>2019-06-19T22:13:27Z</time>
      </trkpt>
      <trkpt lat="45.19443" lon="5.53903">
        <ele>1233</ele>
        <time>2019-06-19T22:13:31Z</time>
      </trkpt>
      <trkpt lat="45.19374" lon="5.53911">
        <ele>1227</ele>
        <time>2019-06-19T22:13:47Z</time>
      </trkpt>
      <trkpt lat="45.19338" lon="5.53897">
        <ele>1219</ele>
        <time>2019-06-19T22:13:56Z</time>
      </trkpt>
      <trkpt lat="45.19312" lon="5.53905">
        <ele>1216</ele>
        <time>2019-06-19T22:14:02Z</time>
      </trkpt>
      <trkpt lat="45.19264" lon="5.53876">
        <ele>1201</ele>
        <time>2019-06-19T22:14:15Z</time>
      </trkpt>
      <trkpt lat="45.19239" lon="5.53872">
        <ele>1195</ele>
        <time>2019-06-19T22:14:20Z</time>
      </trkpt>
      <trkpt lat="45.19232" lon="5.53866">
        <ele>1192</ele>
        <time>2019-06-19T22:14:22Z</time>
      </trkpt>
      <trkpt lat="45.1921" lon="5.53864">
        <ele>1187</ele>
        <time>2019-06-19T22:14:28Z</time>
      </trkpt>
      <trkpt lat="45.1917" lon="5.53915">
        <ele>1182</ele>
        <time>2019-06-19T22:14:40Z</time>
      </trkpt>
      <trkpt lat="45.19172" lon="5.53983">
        <ele>1177</ele>
        <time>2019-06-19T22:14:51Z</time>
      </trkpt>
      <trkpt lat="45.19191" lon="5.54048">
        <ele>1180</ele>
        <time>2019-06-19T22:15:03Z</time>
      </trkpt>
      <trkpt lat="45.19187" lon="5.54062">
        <ele>1178</ele>
        <time>2019-06-19T22:15:05Z</time>
      </trkpt>
      <trkpt lat="45.19189" lon="5.54065">
        <ele>1179</ele>
        <time>2019-06-19T22:15:06Z</time>
      </trkpt>
      <trkpt lat="45.19164" lon="5.54119">
        <ele>1168</ele>
        <time>2019-06-19T22:15:17Z</time>
      </trkpt>
      <trkpt lat="45.1916" lon="5.54116">
        <ele>1168</ele>
        <time>2019-06-19T22:15:18Z</time>
      </trkpt>
      <trkpt lat="45.19154" lon="5.54097">
        <ele>1167</ele>
        <time>2019-06-19T22:15:21Z</time>
      </trkpt>
      <trkpt lat="45.19151" lon="5.54094">
        <ele>1166</ele>
        <time>2019-06-19T22:15:22Z</time>
      </trkpt>
      <trkpt lat="45.19135" lon="5.541">
        <ele>1163</ele>
        <time>2019-06-19T22:15:26Z</time>
      </trkpt>
      <trkpt lat="45.19131" lon="5.54106">
        <ele>1162</ele>
        <time>2019-06-19T22:15:27Z</time>
      </trkpt>
      <trkpt lat="45.19129" lon="5.54117">
        <ele>1161</ele>
        <time>2019-06-19T22:15:29Z</time>
      </trkpt>
      <trkpt lat="45.19124" lon="5.54127">
        <ele>1160</ele>
        <time>2019-06-19T22:15:31Z</time>
      </trkpt>
      <trkpt lat="45.19122" lon="5.54127">
        <ele>1160</ele>
        <time>2019-06-19T22:15:32Z</time>
      </trkpt>
      <trkpt lat="45.19109" lon="5.54102">
        <ele>1158</ele>
        <time>2019-06-19T22:15:37Z</time>
      </trkpt>
      <trkpt lat="45.19111" lon="5.54082">
        <ele>1159</ele>
        <time>2019-06-19T22:15:40Z</time>
      </trkpt>
      <trkpt lat="45.1911" lon="5.54024">
        <ele>1159</ele>
        <time>2019-06-19T22:15:50Z</time>
      </trkpt>
      <trkpt lat="45.19099" lon="5.54008">
        <ele>1157</ele>
        <time>2019-06-19T22:15:53Z</time>
      </trkpt>
      <trkpt lat="45.19083" lon="5.5397">
        <ele>1154</ele>
        <time>2019-06-19T22:16:01Z</time>
      </trkpt>
      <trkpt lat="45.1907" lon="5.53909">
        <ele>1152</ele>
        <time>2019-06-19T22:16:11Z</time>
      </trkpt>
      <trkpt lat="45.19066" lon="5.53902">
        <ele>1151</ele>
        <time>2019-06-19T22:16:13Z</time>
      </trkpt>
      <trkpt lat="45.19065" lon="5.5389">
        <ele>1150</ele>
        <time>2019-06-19T22:16:15Z</time>
      </trkpt>
      <trkpt lat="45.19052" lon="5.53878">
        <ele>1147</ele>
        <time>2019-06-19T22:16:18Z</time>
      </trkpt>
      <trkpt lat="45.19051" lon="5.53871">
        <ele>1147</ele>
        <time>2019-06-19T22:16:19Z</time>
      </trkpt>
      <trkpt lat="45.1909" lon="5.5382">
        <ele>1154</ele>
        <time>2019-06-19T22:16:32Z</time>
      </trkpt>
      <trkpt lat="45.19092" lon="5.53809">
        <ele>1154</ele>
        <time>2019-06-19T22:16:34Z</time>
      </trkpt>
      <trkpt lat="45.19089" lon="5.53802">
        <ele>1154</ele>
        <time>2019-06-19T22:16:35Z</time>
      </trkpt>
      <trkpt lat="45.19077" lon="5.53803">
        <ele>1152</ele>
        <time>2019-06-19T22:16:38Z</time>
      </trkpt>
      <trkpt lat="45.1908" lon="5.53806">
        <ele>1152</ele>
        <time>2019-06-19T22:16:39Z</time>
      </trkpt>
      <trkpt lat="45.19073" lon="5.53816">
        <ele>1151</ele>
        <time>2019-06-19T22:16:41Z</time>
      </trkpt>
      <trkpt lat="45.19034" lon="5.53842">
        <ele>1143</ele>
        <time>2019-06-19T22:16:51Z</time>
      </trkpt>
      <trkpt lat="45.19012" lon="5.53843">
        <ele>1138</ele>
        <time>2019-06-19T22:16:56Z</time>
      </trkpt>
      <trkpt lat="45.1899" lon="5.5385">
        <ele>1134</ele>
        <time>2019-06-19T22:17:01Z</time>
      </trkpt>
      <trkpt lat="45.18934" lon="5.53874">
        <ele>1124</ele>
        <time>2019-06-19T22:17:15Z</time>
      </trkpt>
      <trkpt lat="45.18923" lon="5.53883">
        <ele>1121</ele>
        <time>2019-06-19T22:17:18Z</time>
      </trkpt>
      <trkpt lat="45.18913" lon="5.53931">
        <ele>1117</ele>
        <time>2019-06-19T22:17:26Z</time>
      </trkpt>
      <trkpt lat="45.18909" lon="5.53938">
        <ele>1117</ele>
        <time>2019-06-19T22:17:28Z</time>
      </trkpt>
      <trkpt lat="45.18875" lon="5.53988">
        <ele>1117</ele>
        <time>2019-06-19T22:17:39Z</time>
      </trkpt>
      <trkpt lat="45.18868" lon="5.53996">
        <ele>1117</ele>
        <time>2019-06-19T22:17:41Z</time>
      </trkpt>
      <trkpt lat="45.18851" lon="5.54008">
        <ele>1119</ele>
        <time>2019-06-19T22:17:46Z</time>
      </trkpt>
      <trkpt lat="45.18836" lon="5.54012">
        <ele>1119</ele>
        <time>2019-06-19T22:17:49Z</time>
      </trkpt>
      <trkpt lat="45.18793" lon="5.54017">
        <ele>1122</ele>
        <time>2019-06-19T22:17:59Z</time>
      </trkpt>
      <trkpt lat="45.18737" lon="5.54029">
        <ele>1127</ele>
        <time>2019-06-19T22:18:13Z</time>
      </trkpt>
      <trkpt lat="45.18698" lon="5.54024">
        <ele>1126</ele>
        <time>2019-06-19T22:18:22Z</time>
      </trkpt>
      <trkpt lat="45.18703" lon="5.54028">
        <ele>1127</ele>
        <time>2019-06-19T22:18:23Z</time>
      </trkpt>
      <trkpt lat="45.18702" lon="5.54031">
        <ele>1128</ele>
        <time>2019-06-19T22:18:24Z</time>
      </trkpt>
      <trkpt lat="45.18701" lon="5.54028">
        <ele>1127</ele>
        <time>2019-06-19T22:18:24Z</time>
      </trkpt>
      <trkpt lat="45.18704" lon="5.5403">
        <ele>1127</ele>
        <time>2019-06-19T22:18:25Z</time>
      </trkpt>
      <trkpt lat="45.18672" lon="5.54027">
        <ele>1127</ele>
        <time>2019-06-19T22:18:32Z</time>
      </trkpt>
      <trkpt lat="45.1866" lon="5.54023">
        <ele>1125</ele>
        <time>2019-06-19T22:18:35Z</time>
      </trkpt>
      <trkpt lat="45.18658" lon="5.5403">
        <ele>1127</ele>
        <time>2019-06-19T22:18:37Z</time>
      </trkpt>
      <trkpt lat="45.18631" lon="5.5402">
        <ele>1121</ele>
        <time>2019-06-19T22:18:43Z</time>
      </trkpt>
      <trkpt lat="45.18576" lon="5.54016">
        <ele>1115</ele>
        <time>2019-06-19T22:18:56Z</time>
      </trkpt>
      <trkpt lat="45.18536" lon="5.54031">
        <ele>1114</ele>
        <time>2019-06-19T22:19:06Z</time>
      </trkpt>
      <trkpt lat="45.18528" lon="5.54037">
        <ele>1113</ele>
        <time>2019-06-19T22:19:08Z</time>
      </trkpt>
      <trkpt lat="45.18515" lon="5.54058">
        <ele>1113</ele>
        <time>2019-06-19T22:19:12Z</time>
      </trkpt>
      <trkpt lat="45.18511" lon="5.54074">
        <ele>1113</ele>
        <time>2019-06-19T22:19:15Z</time>
      </trkpt>
      <trkpt lat="45.1851" lon="5.54171">
        <ele>1108</ele>
        <time>2019-06-19T22:19:31Z</time>
      </trkpt>
      <trkpt lat="45.18504" lon="5.54255">
        <ele>1103</ele>
        <time>2019-06-19T22:19:45Z</time>
      </trkpt>
      <trkpt lat="45.18519" lon="5.54344">
        <ele>1104</ele>
        <time>2019-06-19T22:20:00Z</time>
      </trkpt>
      <trkpt lat="45.18527" lon="5.54424">
        <ele>1100</ele>
        <time>2019-06-19T22:20:13Z</time>
      </trkpt>
      <trkpt lat="45.1853" lon="5.545">
        <ele>1095</ele>
        <time>2019-06-19T22:20:26Z</time>
      </trkpt>
      <trkpt lat="45.18514" lon="5.54589">
        <ele>1093</ele>
        <time>2019-06-19T22:20:41Z</time>
      </trkpt>
      <trkpt lat="45.18514" lon="5.54605">
        <ele>1094</ele>
        <time>2019-06-19T22:20:44Z</time>
      </trkpt>
      <trkpt lat="45.18537" lon="5.54645">
        <ele>1097</ele>
        <time>2019-06-19T22:20:52Z</time>
      </trkpt>
      <trkpt lat="45.18532" lon="5.54674">
        <ele>1097</ele>
        <time>2019-06-19T22:20:57Z</time>
      </trkpt>
      <trkpt lat="45.18538" lon="5.54708">
        <ele>1096</ele>
        <time>2019-06-19T22:21:03Z</time>
      </trkpt>
      <trkpt lat="45.18535" lon="5.54723">
        <ele>1095</ele>
        <time>2019-06-19T22:21:05Z</time>
      </trkpt>
      <trkpt lat="45.18494" lon="5.54786">
        <ele>1086</ele>
        <time>2019-06-19T22:21:19Z</time>
      </trkpt>
      <trkpt lat="45.18463" lon="5.54855">
        <ele>1084</ele>
        <time>2019-06-19T22:21:33Z</time>
      </trkpt>
      <trkpt lat="45.18465" lon="5.54867">
        <ele>1086</ele>
        <time>2019-06-19T22:21:35Z</time>
      </trkpt>
      <trkpt lat="45.18476" lon="5.54878">
        <ele>1088</ele>
        <time>2019-06-19T22:21:38Z</time>
      </trkpt>
      <trkpt lat="45.18495" lon="5.54907">
        <ele>1093</ele>
        <time>2019-06-19T22:21:45Z</time>
      </trkpt>
      <trkpt lat="45.18518" lon="5.54976">
        <ele>1106</ele>
        <time>2019-06-19T22:21:57Z</time>
      </trkpt>
      <trkpt lat="45.18534" lon="5.54998">
        <ele>1109</ele>
        <time>2019-06-19T22:22:02Z</time>
      </trkpt>
      <trkpt lat="45.1858" lon="5.55039">
        <ele>1110</ele>
        <time>2019-06-19T22:22:15Z</time>
      </trkpt>
      <trkpt lat="45.18599" lon="5.55051">
        <ele>1111</ele>
        <time>2019-06-19T22:22:20Z</time>
      </trkpt>
      <trkpt lat="45.18624" lon="5.55063">
        <ele>1110</ele>
        <time>2019-06-19T22:22:26Z</time>
      </trkpt>
      <trkpt lat="45.1867" lon="5.5508">
        <ele>1108</ele>
        <time>2019-06-19T22:22:37Z</time>
      </trkpt>
      <trkpt lat="45.18744" lon="5.55103">
        <ele>1117</ele>
        <time>2019-06-19T22:22:55Z</time>
      </trkpt>
      <trkpt lat="45.18779" lon="5.55121">
        <ele>1121</ele>
        <time>2019-06-19T22:23:04Z</time>
      </trkpt>
      <trkpt lat="45.18791" lon="5.55124">
        <ele>1122</ele>
        <time>2019-06-19T22:23:06Z</time>
      </trkpt>
      <trkpt lat="45.18815" lon="5.55153">
        <ele>1125</ele>
        <time>2019-06-19T22:23:14Z</time>
      </trkpt>
      <trkpt lat="45.1884" lon="5.55167">
        <ele>1127</ele>
        <time>2019-06-19T22:23:20Z</time>
      </trkpt>
      <trkpt lat="45.18871" lon="5.55196">
        <ele>1135</ele>
        <time>2019-06-19T22:23:29Z</time>
      </trkpt>
      <trkpt lat="45.18898" lon="5.55202">
        <ele>1137</ele>
        <time>2019-06-19T22:23:35Z</time>
      </trkpt>
      <trkpt lat="45.18938" lon="5.55242">
        <ele>1139</ele>
        <time>2019-06-19T22:23:47Z</time>
      </trkpt>
      <trkpt lat="45.19" lon="5.55311">
        <ele>1144</ele>
        <time>2019-06-19T22:24:05Z</time>
      </trkpt>
      <trkpt lat="45.19021" lon="5.5536">
        <ele>1150</ele>
        <time>2019-06-19T22:24:14Z</time>
      </trkpt>
      <trkpt lat="45.19023" lon="5.55424">
        <ele>1157</ele>
        <time>2019-06-19T22:24:25Z</time>
      </trkpt>
      <trkpt lat="45.19041" lon="5.5538">
        <ele>1155</ele>
        <time>2019-06-19T22:24:33Z</time>
      </trkpt>
      <trkpt lat="45.19043" lon="5.55352">
        <ele>1152</ele>
        <time>2019-06-19T22:24:38Z</time>
      </trkpt>
      <trkpt lat="45.19066" lon="5.5532">
        <ele>1153</ele>
        <time>2019-06-19T22:24:45Z</time>
      </trkpt>
      <trkpt lat="45.19044" lon="5.55271">
        <ele>1149</ele>
        <time>2019-06-19T22:24:55Z</time>
      </trkpt>
      <trkpt lat="45.19066" lon="5.55287">
        <ele>1153</ele>
        <time>2019-06-19T22:25:01Z</time>
      </trkpt>
      <trkpt lat="45.19102" lon="5.55298">
        <ele>1158</ele>
        <time>2019-06-19T22:25:09Z</time>
      </trkpt>
      <trkpt lat="45.19141" lon="5.55324">
        <ele>1164</ele>
        <time>2019-06-19T22:25:19Z</time>
      </trkpt>
      <trkpt lat="45.19146" lon="5.55335">
        <ele>1164</ele>
        <time>2019-06-19T22:25:22Z</time>
      </trkpt>
      <trkpt lat="45.19142" lon="5.55347">
        <ele>1165</ele>
        <time>2019-06-19T22:25:24Z</time>
      </trkpt>
      <trkpt lat="45.19122" lon="5.55354">
        <ele>1162</ele>
        <time>2019-06-19T22:25:29Z</time>
      </trkpt>
      <trkpt lat="45.19114" lon="5.55361">
        <ele>1162</ele>
        <time>2019-06-19T22:25:31Z</time>
      </trkpt>
      <trkpt lat="45.19108" lon="5.55373">
        <ele>1162</ele>
        <time>2019-06-19T22:25:33Z</time>
      </trkpt>
      <trkpt lat="45.19103" lon="5.554">
        <ele>1163</ele>
        <time>2019-06-19T22:25:38Z</time>
      </trkpt>
      <trkpt lat="45.19106" lon="5.55419">
        <ele>1165</ele>
        <time>2019-06-19T22:25:41Z</time>
      </trkpt>
      <trkpt lat="45.19104" lon="5.55425">
        <ele>1165</ele>
        <time>2019-06-19T22:25:42Z</time>
      </trkpt>
      <trkpt lat="45.19112" lon="5.55454">
        <ele>1167</ele>
        <time>2019-06-19T22:25:47Z</time>
      </trkpt>
      <trkpt lat="45.19113" lon="5.55518">
        <ele>1168</ele>
        <time>2019-06-19T22:25:58Z</time>
      </trkpt>
      <trkpt lat="45.19128" lon="5.55585">
        <ele>1171</ele>
        <time>2019-06-19T22:26:09Z</time>
      </trkpt>
      <trkpt lat="45.1915" lon="5.55602">
        <ele>1175</ele>
        <time>2019-06-19T22:26:15Z</time>
      </trkpt>
      <trkpt lat="45.19152" lon="5.55609">
        <ele>1175</ele>
        <time>2019-06-19T22:26:16Z</time>
      </trkpt>
      <trkpt lat="45.19165" lon="5.55619">
        <ele>1176</ele>
        <time>2019-06-19T22:26:20Z</time>
      </trkpt>
      <trkpt lat="45.19175" lon="5.5562">
        <ele>1177</ele>
        <time>2019-06-19T22:26:22Z</time>
      </trkpt>
      <trkpt lat="45.19191" lon="5.55614">
        <ele>1179</ele>
        <time>2019-06-19T22:26:26Z</time>
      </trkpt>
      <trkpt lat="45.19211" lon="5.55613">
        <ele>1181</ele>
        <time>2019-06-19T22:26:31Z</time>
      </trkpt>
      <trkpt lat="45.19219" lon="5.5561">
        <ele>1182</ele>
        <time>2019-06-19T22:26:33Z</time>
      </trkpt>
      <trkpt lat="45.19252" lon="5.55578">
        <ele>1186</ele>
        <time>2019-06-19T22:26:42Z</time>
      </trkpt>
      <trkpt lat="45.19263" lon="5.55578">
        <ele>1187</ele>
        <time>2019-06-19T22:26:45Z</time>
      </trkpt>
      <trkpt lat="45.19262" lon="5.55575">
        <ele>1187</ele>
        <time>2019-06-19T22:26:45Z</time>
      </trkpt>
      <trkpt lat="45.19287" lon="5.55547">
        <ele>1189</ele>
        <time>2019-06-19T22:26:53Z</time>
      </trkpt>
      <trkpt lat="45.19286" lon="5.55603">
        <ele>1188</ele>
        <time>2019-06-19T22:27:02Z</time>
      </trkpt>
      <trkpt lat="45.19312" lon="5.55626">
        <ele>1188</ele>
        <time>2019-06-19T22:27:09Z</time>
      </trkpt>
      <trkpt lat="45.19333" lon="5.55617">
        <ele>1190</ele>
        <time>2019-06-19T22:27:14Z</time>
      </trkpt>
      <trkpt lat="45.19365" lon="5.55612">
        <ele>1192</ele>
        <time>2019-06-19T22:27:22Z</time>
      </trkpt>
      <trkpt lat="45.19395" lon="5.55637">
        <ele>1192</ele>
        <time>2019-06-19T22:27:30Z</time>
      </trkpt>
      <trkpt lat="45.1942" lon="5.55631">
        <ele>1194</ele>
        <time>2019-06-19T22:27:36Z</time>
      </trkpt>
      <trkpt lat="45.1943" lon="5.5562">
        <ele>1196</ele>
        <time>2019-06-19T22:27:39Z</time>
      </trkpt>
      <trkpt lat="45.19436" lon="5.55623">
        <ele>1197</ele>
        <time>2019-06-19T22:27:40Z</time>
      </trkpt>
      <trkpt lat="45.19449" lon="5.5564">
        <ele>1198</ele>
        <time>2019-06-19T22:27:44Z</time>
      </trkpt>
      <trkpt lat="45.19459" lon="5.55644">
        <ele>1199</ele>
        <time>2019-06-19T22:27:47Z</time>
      </trkpt>
      <trkpt lat="45.1947" lon="5.55678">
        <ele>1200</ele>
        <time>2019-06-19T22:27:53Z</time>
      </trkpt>
      <trkpt lat="45.19539" lon="5.55722">
        <ele>1206</ele>
        <time>2019-06-19T22:28:10Z</time>
      </trkpt>
      <trkpt lat="45.19561" lon="5.55741">
        <ele>1206</ele>
        <time>2019-06-19T22:28:16Z</time>
      </trkpt>
      <trkpt lat="45.19583" lon="5.55765">
        <ele>1207</ele>
        <time>2019-06-19T22:28:23Z</time>
      </trkpt>
      <trkpt lat="45.19749" lon="5.55772">
        <ele>1224</ele>
        <time>2019-06-19T22:29:02Z</time>
      </trkpt>
      <trkpt lat="45.19792" lon="5.55807">
        <ele>1227</ele>
        <time>2019-06-19T22:29:13Z</time>
      </trkpt>
      <trkpt lat="45.19849" lon="5.55822">
        <ele>1230</ele>
        <time>2019-06-19T22:29:27Z</time>
      </trkpt>
      <trkpt lat="45.19904" lon="5.55786">
        <ele>1235</ele>
        <time>2019-06-19T22:29:41Z</time>
      </trkpt>
      <trkpt lat="45.19938" lon="5.55784">
        <ele>1238</ele>
        <time>2019-06-19T22:29:49Z</time>
      </trkpt>
      <trkpt lat="45.1995" lon="5.55789">
        <ele>1239</ele>
        <time>2019-06-19T22:29:52Z</time>
      </trkpt>
      <trkpt lat="45.20011" lon="5.55743">
        <ele>1245</ele>
        <time>2019-06-19T22:30:08Z</time>
      </trkpt>
      <trkpt lat="45.20033" lon="5.5574">
        <ele>1248</ele>
        <time>2019-06-19T22:30:13Z</time>
      </trkpt>
      <trkpt lat="45.20049" lon="5.55743">
        <ele>1250</ele>
        <time>2019-06-19T22:30:17Z</time>
      </trkpt>
      <trkpt lat="45.20067" lon="5.55747">
        <ele>1251</ele>
        <time>2019-06-19T22:30:21Z</time>
      </trkpt>
      <trkpt lat="45.20079" lon="5.55754">
        <ele>1253</ele>
        <time>2019-06-19T22:30:24Z</time>
      </trkpt>
      <trkpt lat="45.20084" lon="5.5576">
        <ele>1253</ele>
        <time>2019-06-19T22:30:26Z</time>
      </trkpt>
      <trkpt lat="45.20087" lon="5.5577">
        <ele>1254</ele>
        <time>2019-06-19T22:30:27Z</time>
      </trkpt>
      <trkpt lat="45.20085" lon="5.55777">
        <ele>1254</ele>
        <time>2019-06-19T22:30:29Z</time>
      </trkpt>
      <trkpt lat="45.20068" lon="5.55797">
        <ele>1252</ele>
        <time>2019-06-19T22:30:34Z</time>
      </trkpt>
      <trkpt lat="45.20061" lon="5.55811">
        <ele>1251</ele>
        <time>2019-06-19T22:30:37Z</time>
      </trkpt>
      <trkpt lat="45.20061" lon="5.55816">
        <ele>1251</ele>
        <time>2019-06-19T22:30:38Z</time>
      </trkpt>
      <trkpt lat="45.20064" lon="5.5582">
        <ele>1252</ele>
        <time>2019-06-19T22:30:39Z</time>
      </trkpt>
      <trkpt lat="45.20094" lon="5.55838">
        <ele>1256</ele>
        <time>2019-06-19T22:30:46Z</time>
      </trkpt>
      <trkpt lat="45.20174" lon="5.55836">
        <ele>1262</ele>
        <time>2019-06-19T22:31:05Z</time>
      </trkpt>
      <trkpt lat="45.2018" lon="5.55843">
        <ele>1262</ele>
        <time>2019-06-19T22:31:07Z</time>
      </trkpt>
      <trkpt lat="45.20185" lon="5.55855">
        <ele>1263</ele>
        <time>2019-06-19T22:31:09Z</time>
      </trkpt>
      <trkpt lat="45.20194" lon="5.55896">
        <ele>1263</ele>
        <time>2019-06-19T22:31:16Z</time>
      </trkpt>
      <trkpt lat="45.20187" lon="5.55932">
        <ele>1263</ele>
        <time>2019-06-19T22:31:22Z</time>
      </trkpt>
      <trkpt lat="45.20222" lon="5.55937">
        <ele>1264</ele>
        <time>2019-06-19T22:31:30Z</time>
      </trkpt>
      <trkpt lat="45.20261" lon="5.55957">
        <ele>1266</ele>
        <time>2019-06-19T22:31:40Z</time>
      </trkpt>
      <trkpt lat="45.20316" lon="5.55965">
        <ele>1270</ele>
        <time>2019-06-19T22:31:53Z</time>
      </trkpt>
      <trkpt lat="45.20355" lon="5.55946">
        <ele>1272</ele>
        <time>2019-06-19T22:32:03Z</time>
      </trkpt>
      <trkpt lat="45.20411" lon="5.55927">
        <ele>1276</ele>
        <time>2019-06-19T22:32:16Z</time>
      </trkpt>
      <trkpt lat="45.20455" lon="5.5593">
        <ele>1279</ele>
        <time>2019-06-19T22:32:26Z</time>
      </trkpt>
      <trkpt lat="45.20494" lon="5.55938">
        <ele>1281</ele>
        <time>2019-06-19T22:32:35Z</time>
      </trkpt>
      <trkpt lat="45.20546" lon="5.55961">
        <ele>1283</ele>
        <time>2019-06-19T22:32:48Z</time>
      </trkpt>
      <trkpt lat="45.20565" lon="5.55965">
        <ele>1284</ele>
        <time>2019-06-19T22:32:53Z</time>
      </trkpt>
      <trkpt lat="45.20596" lon="5.55962">
        <ele>1285</ele>
        <time>2019-06-19T22:33:00Z</time>
      </trkpt>
      <trkpt lat="45.20621" lon="5.55953">
        <ele>1287</ele>
        <time>2019-06-19T22:33:06Z</time>
      </trkpt>
      <trkpt lat="45.20637" lon="5.55944">
        <ele>1287</ele>
        <time>2019-06-19T22:33:10Z</time>
      </trkpt>
      <trkpt lat="45.20679" lon="5.55874">
        <ele>1285</ele>
        <time>2019-06-19T22:33:25Z</time>
      </trkpt>
      <trkpt lat="45.20674" lon="5.55873">
        <ele>1285</ele>
        <time>2019-06-19T22:33:26Z</time>
      </trkpt>
      <trkpt lat="45.20673" lon="5.55865">
        <ele>1285</ele>
        <time>2019-06-19T22:33:28Z</time>
      </trkpt>
      <trkpt lat="45.20683" lon="5.55831">
        <ele>1284</ele>
        <time>2019-06-19T22:33:34Z</time>
      </trkpt>
      <trkpt lat="45.20718" lon="5.55778">
        <ele>1286</ele>
        <time>2019-06-19T22:33:46Z</time>
      </trkpt>
      <trkpt lat="45.20757" lon="5.55806">
        <ele>1284</ele>
        <time>2019-06-19T22:33:56Z</time>
      </trkpt>
      <trkpt lat="45.20813" lon="5.55804">
        <ele>1286</ele>
        <time>2019-06-19T22:34:09Z</time>
      </trkpt>
      <trkpt lat="45.20864" lon="5.55832">
        <ele>1288</ele>
        <time>2019-06-19T22:34:22Z</time>
      </trkpt>
      <trkpt lat="45.20879" lon="5.55832">
        <ele>1289</ele>
        <time>2019-06-19T22:34:25Z</time>
      </trkpt>
      <trkpt lat="45.20892" lon="5.55826">
        <ele>1291</ele>
        <time>2019-06-19T22:34:28Z</time>
      </trkpt>
      <trkpt lat="45.20906" lon="5.55825">
        <ele>1292</ele>
        <time>2019-06-19T22:34:32Z</time>
      </trkpt>
      <trkpt lat="45.20924" lon="5.5582">
        <ele>1294</ele>
        <time>2019-06-19T22:34:36Z</time>
      </trkpt>
      <trkpt lat="45.20934" lon="5.55812">
        <ele>1295</ele>
        <time>2019-06-19T22:34:39Z</time>
      </trkpt>
      <trkpt lat="45.20955" lon="5.55779">
        <ele>1297</ele>
        <time>2019-06-19T22:34:46Z</time>
      </trkpt>
      <trkpt lat="45.20965" lon="5.55769">
        <ele>1299</ele>
        <time>2019-06-19T22:34:49Z</time>
      </trkpt>
      <trkpt lat="45.20991" lon="5.55763">
        <ele>1301</ele>
        <time>2019-06-19T22:34:55Z</time>
      </trkpt>
      <trkpt lat="45.21004" lon="5.55763">
        <ele>1302</ele>
        <time>2019-06-19T22:34:58Z</time>
      </trkpt>
      <trkpt lat="45.21017" lon="5.55778">
        <ele>1301</ele>
        <time>2019-06-19T22:35:02Z</time>
      </trkpt>
      <trkpt lat="45.21054" lon="5.55788">
        <ele>1303</ele>
        <time>2019-06-19T22:35:11Z</time>
      </trkpt>
      <trkpt lat="45.21072" lon="5.55819">
        <ele>1302</ele>
        <time>2019-06-19T22:35:17Z</time>
      </trkpt>
      <trkpt lat="45.21099" lon="5.55842">
        <ele>1301</ele>
        <time>2019-06-19T22:35:25Z</time>
      </trkpt>
      <trkpt lat="45.21125" lon="5.55855">
        <ele>1301</ele>
        <time>2019-06-19T22:35:31Z</time>
      </trkpt>
      <trkpt lat="45.21169" lon="5.5586">
        <ele>1300</ele>
        <time>2019-06-19T22:35:41Z</time>
      </trkpt>
      <trkpt lat="45.21177" lon="5.55863">
        <ele>1301</ele>
        <time>2019-06-19T22:35:43Z</time>
      </trkpt>
      <trkpt lat="45.21182" lon="5.5587">
        <ele>1301</ele>
        <time>2019-06-19T22:35:45Z</time>
      </trkpt>
      <trkpt lat="45.21187" lon="5.55884">
        <ele>1300</ele>
        <time>2019-06-19T22:35:48Z</time>
      </trkpt>
      <trkpt lat="45.21193" lon="5.55889">
        <ele>1300</ele>
        <time>2019-06-19T22:35:49Z</time>
      </trkpt>
      <trkpt lat="45.21199" lon="5.55888">
        <ele>1300</ele>
        <time>2019-06-19T22:35:51Z</time>
      </trkpt>
      <trkpt lat="45.2124" lon="5.55857">
        <ele>1305</ele>
        <time>2019-06-19T22:36:01Z</time>
      </trkpt>
      <trkpt lat="45.21246" lon="5.55855">
        <ele>1306</ele>
        <time>2019-06-19T22:36:03Z</time>
      </trkpt>
      <trkpt lat="45.21268" lon="5.55858">
        <ele>1307</ele>
        <time>2019-06-19T22:36:08Z</time>
      </trkpt>
      <trkpt lat="45.21276" lon="5.55864">
        <ele>1308</ele>
        <time>2019-06-19T22:36:10Z</time>
      </trkpt>
      <trkpt lat="45.21287" lon="5.55884">
        <ele>1307</ele>
        <time>2019-06-19T22:36:14Z</time>
      </trkpt>
      <trkpt lat="45.21291" lon="5.55911">
        <ele>1304</ele>
        <time>2019-06-19T22:36:19Z</time>
      </trkpt>
      <trkpt lat="45.2129" lon="5.55933">
        <ele>1303</ele>
        <time>2019-06-19T22:36:23Z</time>
      </trkpt>
      <trkpt lat="45.21294" lon="5.55959">
        <ele>1302</ele>
        <time>2019-06-19T22:36:27Z</time>
      </trkpt>
      <trkpt lat="45.21303" lon="5.55986">
        <ele>1302</ele>
        <time>2019-06-19T22:36:32Z</time>
      </trkpt>
      <trkpt lat="45.21356" lon="5.56001">
        <ele>1300</ele>
        <time>2019-06-19T22:36:44Z</time>
      </trkpt>
      <trkpt lat="45.21368" lon="5.56011">
        <ele>1300</ele>
        <time>2019-06-19T22:36:48Z</time>
      </trkpt>
      <trkpt lat="45.21398" lon="5.56012">
        <ele>1298</ele>
        <time>2019-06-19T22:36:55Z</time>
      </trkpt>
      <trkpt lat="45.21478" lon="5.56004">
        <ele>1298</ele>
        <time>2019-06-19T22:37:13Z</time>
      </trkpt>
      <trkpt lat="45.21634" lon="5.55994">
        <ele>1302</ele>
        <time>2019-06-19T22:37:50Z</time>
      </trkpt>
      <trkpt lat="45.21666" lon="5.55996">
        <ele>1304</ele>
        <time>2019-06-19T22:37:57Z</time>
      </trkpt>
      <trkpt lat="45.21808" lon="5.56025">
        <ele>1299</ele>
        <time>2019-06-19T22:38:31Z</time>
      </trkpt>
      <trkpt lat="45.21827" lon="5.56043">
        <ele>1298</ele>
        <time>2019-06-19T22:38:36Z</time>
      </trkpt>
      <trkpt lat="45.21847" lon="5.56101">
        <ele>1300</ele>
        <time>2019-06-19T22:38:47Z</time>
      </trkpt>
      <trkpt lat="45.21887" lon="5.56174">
        <ele>1305</ele>
        <time>2019-06-19T22:39:02Z</time>
      </trkpt>
      <trkpt lat="45.21945" lon="5.56269">
        <ele>1310</ele>
        <time>2019-06-19T22:39:23Z</time>
      </trkpt>
      <trkpt lat="45.21968" lon="5.56313">
        <ele>1314</ele>
        <time>2019-06-19T22:39:32Z</time>
      </trkpt>
      <trkpt lat="45.21981" lon="5.56339">
        <ele>1315</ele>
        <time>2019-06-19T22:39:37Z</time>
      </trkpt>
      <trkpt lat="45.22002" lon="5.56396">
        <ele>1319</ele>
        <time>2019-06-19T22:39:48Z</time>
      </trkpt>
      <trkpt lat="45.22041" lon="5.56461">
        <ele>1322</ele>
        <time>2019-06-19T22:40:02Z</time>
      </trkpt>
      <trkpt lat="45.22065" lon="5.56511">
        <ele>1323</ele>
        <time>2019-06-19T22:40:12Z</time>
      </trkpt>
      <trkpt lat="45.2208" lon="5.5656">
        <ele>1324</ele>
        <time>2019-06-19T22:40:20Z</time>
      </trkpt>
      <trkpt lat="45.22086" lon="5.56608">
        <ele>1326</ele>
        <time>2019-06-19T22:40:28Z</time>
      </trkpt>
      <trkpt lat="45.22086" lon="5.56634">
        <ele>1326</ele>
        <time>2019-06-19T22:40:33Z</time>
      </trkpt>
      <trkpt lat="45.22083" lon="5.56647">
        <ele>1327</ele>
        <time>2019-06-19T22:40:35Z</time>
      </trkpt>
      <trkpt lat="45.22065" lon="5.56685">
        <ele>1331</ele>
        <time>2019-06-19T22:40:42Z</time>
      </trkpt>
      <trkpt lat="45.22042" lon="5.5672">
        <ele>1337</ele>
        <time>2019-06-19T22:40:50Z</time>
      </trkpt>
      <trkpt lat="45.22011" lon="5.56821">
        <ele>1344</ele>
        <time>2019-06-19T22:41:08Z</time>
      </trkpt>
      <trkpt lat="45.21996" lon="5.56856">
        <ele>1348</ele>
        <time>2019-06-19T22:41:15Z</time>
      </trkpt>
      <trkpt lat="45.2196" lon="5.5689">
        <ele>1351</ele>
        <time>2019-06-19T22:41:25Z</time>
      </trkpt>
      <trkpt lat="45.21916" lon="5.56917">
        <ele>1351</ele>
        <time>2019-06-19T22:41:36Z</time>
      </trkpt>
      <trkpt lat="45.21917" lon="5.56935">
        <ele>1352</ele>
        <time>2019-06-19T22:41:39Z</time>
      </trkpt>
      <trkpt lat="45.21923" lon="5.56943">
        <ele>1353</ele>
        <time>2019-06-19T22:41:41Z</time>
      </trkpt>
      <trkpt lat="45.21943" lon="5.56947">
        <ele>1355</ele>
        <time>2019-06-19T22:41:46Z</time>
      </trkpt>
      <trkpt lat="45.21965" lon="5.56945">
        <ele>1356</ele>
        <time>2019-06-19T22:41:51Z</time>
      </trkpt>
      <trkpt lat="45.21992" lon="5.56948">
        <ele>1357</ele>
        <time>2019-06-19T22:41:58Z</time>
      </trkpt>
      <trkpt lat="45.22007" lon="5.56972">
        <ele>1361</ele>
        <time>2019-06-19T22:42:03Z</time>
      </trkpt>
      <trkpt lat="45.22009" lon="5.56978">
        <ele>1362</ele>
        <time>2019-06-19T22:42:04Z</time>
      </trkpt>
      <trkpt lat="45.22007" lon="5.56995">
        <ele>1364</ele>
        <time>2019-06-19T22:42:07Z</time>
      </trkpt>
      <trkpt lat="45.22012" lon="5.57071">
        <ele>1368</ele>
        <time>2019-06-19T22:42:19Z</time>
      </trkpt>
      <trkpt lat="45.2202" lon="5.57099">
        <ele>1369</ele>
        <time>2019-06-19T22:42:24Z</time>
      </trkpt>
      <trkpt lat="45.22007" lon="5.57132">
        <ele>1365</ele>
        <time>2019-06-19T22:42:30Z</time>
      </trkpt>
      <trkpt lat="45.22008" lon="5.57165">
        <ele>1364</ele>
        <time>2019-06-19T22:42:36Z</time>
      </trkpt>
      <trkpt lat="45.22029" lon="5.5722">
        <ele>1362</ele>
        <time>2019-06-19T22:42:46Z</time>
      </trkpt>
      <trkpt lat="45.22043" lon="5.5724">
        <ele>1364</ele>
        <time>2019-06-19T22:42:51Z</time>
      </trkpt>
      <trkpt lat="45.22053" lon="5.57244">
        <ele>1366</ele>
        <time>2019-06-19T22:42:53Z</time>
      </trkpt>
      <trkpt lat="45.2206" lon="5.57243">
        <ele>1368</ele>
        <time>2019-06-19T22:42:55Z</time>
      </trkpt>
      <trkpt lat="45.22094" lon="5.57195">
        <ele>1377</ele>
        <time>2019-06-19T22:43:06Z</time>
      </trkpt>
      <trkpt lat="45.221" lon="5.57193">
        <ele>1378</ele>
        <time>2019-06-19T22:43:08Z</time>
      </trkpt>
      <trkpt lat="45.22115" lon="5.57207">
        <ele>1379</ele>
        <time>2019-06-19T22:43:12Z</time>
      </trkpt>
      <trkpt lat="45.22149" lon="5.5727">
        <ele>1383</ele>
        <time>2019-06-19T22:43:25Z</time>
      </trkpt>
      <trkpt lat="45.22161" lon="5.57283">
        <ele>1385</ele>
        <time>2019-06-19T22:43:28Z</time>
      </trkpt>
      <trkpt lat="45.22215" lon="5.57293">
        <ele>1389</ele>
        <time>2019-06-19T22:43:41Z</time>
      </trkpt>
      <trkpt lat="45.22245" lon="5.57293">
        <ele>1391</ele>
        <time>2019-06-19T22:43:48Z</time>
      </trkpt>
      <trkpt lat="45.22311" lon="5.57277">
        <ele>1392</ele>
        <time>2019-06-19T22:44:04Z</time>
      </trkpt>
      <trkpt lat="45.22359" lon="5.57222">
        <ele>1392</ele>
        <time>2019-06-19T22:44:18Z</time>
      </trkpt>
      <trkpt lat="45.22399" lon="5.57233">
        <ele>1399</ele>
        <time>2019-06-19T22:44:28Z</time>
      </trkpt>
      <trkpt lat="45.2244" lon="5.57197">
        <ele>1402</ele>
        <time>2019-06-19T22:44:39Z</time>
      </trkpt>
      <trkpt lat="45.22464" lon="5.57158">
        <ele>1400</ele>
        <time>2019-06-19T22:44:47Z</time>
      </trkpt>
      <trkpt lat="45.22542" lon="5.57165">
        <ele>1408</ele>
        <time>2019-06-19T22:45:06Z</time>
      </trkpt>
      <trkpt lat="45.22581" lon="5.57191">
        <ele>1414</ele>
        <time>2019-06-19T22:45:16Z</time>
      </trkpt>
      <trkpt lat="45.22592" lon="5.57271">
        <ele>1425</ele>
        <time>2019-06-19T22:45:29Z</time>
      </trkpt>
      <trkpt lat="45.22663" lon="5.57335">
        <ele>1430</ele>
        <time>2019-06-19T22:45:49Z</time>
      </trkpt>
      <trkpt lat="45.22747" lon="5.57382">
        <ele>1424</ele>
        <time>2019-06-19T22:46:10Z</time>
      </trkpt>
      <trkpt lat="45.22812" lon="5.57413">
        <ele>1421</ele>
        <time>2019-06-19T22:46:26Z</time>
      </trkpt>
      <trkpt lat="45.22852" lon="5.57427">
        <ele>1422</ele>
        <time>2019-06-19T22:46:35Z</time>
      </trkpt>
      <trkpt lat="45.22917" lon="5.57426">
        <ele>1429</ele>
        <time>2019-06-19T22:46:51Z</time>
      </trkpt>
      <trkpt lat="45.22961" lon="5.57415">
        <ele>1433</ele>
        <time>2019-06-19T22:47:01Z</time>
      </trkpt>
      <trkpt lat="45.22993" lon="5.57427">
        <ele>1435</ele>
        <time>2019-06-19T22:47:09Z</time>
      </trkpt>
      <trkpt lat="45.23036" lon="5.57415">
        <ele>1443</ele>
        <time>2019-06-19T22:47:19Z</time>
      </trkpt>
      <trkpt lat="45.2307" lon="5.57432">
        <ele>1448</ele>
        <time>2019-06-19T22:47:27Z</time>
      </trkpt>
      <trkpt lat="45.23095" lon="5.5749">
        <ele>1449</ele>
        <time>2019-06-19T22:47:39Z</time>
      </trkpt>
      <trkpt lat="45.23092" lon="5.57605">
        <ele>1456</ele>
        <time>2019-06-19T22:47:58Z</time>
      </trkpt>
      <trkpt lat="45.2311" lon="5.57636">
        <ele>1462</ele>
        <time>2019-06-19T22:48:04Z</time>
      </trkpt>
      <trkpt lat="45.23134" lon="5.57595">
        <ele>1463</ele>
        <time>2019-06-19T22:48:13Z</time>
      </trkpt>
      <trkpt lat="45.23154" lon="5.57541">
        <ele>1463</ele>
        <time>2019-06-19T22:48:23Z</time>
      </trkpt>
      <trkpt lat="45.23231" lon="5.57477">
        <ele>1473</ele>
        <time>2019-06-19T22:48:44Z</time>
      </trkpt>
      <trkpt lat="45.23265" lon="5.57477">
        <ele>1477</ele>
        <time>2019-06-19T22:48:52Z</time>
      </trkpt>
      <trkpt lat="45.23364" lon="5.57537">
        <ele>1483</ele>
        <time>2019-06-19T22:49:17Z</time>
      </trkpt>
      <trkpt lat="45.23402" lon="5.57544">
        <ele>1486</ele>
        <time>2019-06-19T22:49:26Z</time>
      </trkpt>
      <trkpt lat="45.23438" lon="5.57565">
        <ele>1490</ele>
        <time>2019-06-19T22:49:35Z</time>
      </trkpt>
      <trkpt lat="45.23492" lon="5.57582">
        <ele>1498</ele>
        <time>2019-06-19T22:49:48Z</time>
      </trkpt>
      <trkpt lat="45.23522" lon="5.5761">
        <ele>1501</ele>
        <time>2019-06-19T22:49:56Z</time>
      </trkpt>
      <trkpt lat="45.23534" lon="5.57638">
        <ele>1500</ele>
        <time>2019-06-19T22:50:02Z</time>
      </trkpt>
      <trkpt lat="45.23569" lon="5.57657">
        <ele>1503</ele>
        <time>2019-06-19T22:50:10Z</time>
      </trkpt>
      <trkpt lat="45.23623" lon="5.57706">
        <ele>1505</ele>
        <time>2019-06-19T22:50:25Z</time>
      </trkpt>
      <trkpt lat="45.23677" lon="5.57687">
        <ele>1516</ele>
        <time>2019-06-19T22:50:38Z</time>
      </trkpt>
      <trkpt lat="45.23724" lon="5.57702">
        <ele>1521</ele>
        <time>2019-06-19T22:50:50Z</time>
      </trkpt>
      <trkpt lat="45.23765" lon="5.57732">
        <ele>1523</ele>
        <time>2019-06-19T22:51:00Z</time>
      </trkpt>
      <trkpt lat="45.23809" lon="5.57741">
        <ele>1524</ele>
        <time>2019-06-19T22:51:11Z</time>
      </trkpt>
      <trkpt lat="45.23888" lon="5.57763">
        <ele>1523</ele>
        <time>2019-06-19T22:51:30Z</time>
      </trkpt>
      <trkpt lat="45.23897" lon="5.57809">
        <ele>1511</ele>
        <time>2019-06-19T22:51:37Z</time>
      </trkpt>
      <trkpt lat="45.2393" lon="5.5781">
        <ele>1511</ele>
        <time>2019-06-19T22:51:45Z</time>
      </trkpt>
      <trkpt lat="45.24007" lon="5.57747">
        <ele>1522</ele>
        <time>2019-06-19T22:52:06Z</time>
      </trkpt>
      <trkpt lat="45.24046" lon="5.57778">
        <ele>1516</ele>
        <time>2019-06-19T22:52:16Z</time>
      </trkpt>
      <trkpt lat="45.2419" lon="5.57914">
        <ele>1516</ele>
        <time>2019-06-19T22:52:57Z</time>
      </trkpt>
      <trkpt lat="45.24171" lon="5.58042">
        <ele>1516</ele>
        <time>2019-06-19T22:53:18Z</time>
      </trkpt>
      <trkpt lat="45.24125" lon="5.5817">
        <ele>1512</ele>
        <time>2019-06-19T22:53:42Z</time>
      </trkpt>
      <trkpt lat="45.2413" lon="5.58237">
        <ele>1516</ele>
        <time>2019-06-19T22:53:53Z</time>
      </trkpt>
      <trkpt lat="45.24128" lon="5.58312">
        <ele>1514</ele>
        <time>2019-06-19T22:54:05Z</time>
      </trkpt>
      <trkpt lat="45.24142" lon="5.5837">
        <ele>1518</ele>
        <time>2019-06-19T22:54:15Z</time>
      </trkpt>
      <trkpt lat="45.24142" lon="5.58429">
        <ele>1517</ele>
        <time>2019-06-19T22:54:25Z</time>
      </trkpt>
      <trkpt lat="45.2412" lon="5.58479">
        <ele>1515</ele>
        <time>2019-06-19T22:54:35Z</time>
      </trkpt>
      <trkpt lat="45.24104" lon="5.58503">
        <ele>1513</ele>
        <time>2019-06-19T22:54:40Z</time>
      </trkpt>
      <trkpt lat="45.24024" lon="5.5851">
        <ele>1505</ele>
        <time>2019-06-19T22:54:59Z</time>
      </trkpt>
      <trkpt lat="45.23985" lon="5.58517">
        <ele>1501</ele>
        <time>2019-06-19T22:55:08Z</time>
      </trkpt>
      <trkpt lat="45.23968" lon="5.58539">
        <ele>1504</ele>
        <time>2019-06-19T22:55:13Z</time>
      </trkpt>
      <trkpt lat="45.2393" lon="5.58574">
        <ele>1508</ele>
        <time>2019-06-19T22:55:24Z</time>
      </trkpt>
      <trkpt lat="45.23886" lon="5.58607">
        <ele>1512</ele>
        <time>2019-06-19T22:55:36Z</time>
      </trkpt>
      <trkpt lat="45.2383" lon="5.58621">
        <ele>1509</ele>
        <time>2019-06-19T22:55:49Z</time>
      </trkpt>
      <trkpt lat="45.23799" lon="5.58654">
        <ele>1513</ele>
        <time>2019-06-19T22:55:58Z</time>
      </trkpt>
      <trkpt lat="45.23778" lon="5.58688">
        <ele>1517</ele>
        <time>2019-06-19T22:56:05Z</time>
      </trkpt>
      <trkpt lat="45.23765" lon="5.58726">
        <ele>1521</ele>
        <time>2019-06-19T22:56:12Z</time>
      </trkpt>
      <trkpt lat="45.23757" lon="5.58799">
        <ele>1527</ele>
        <time>2019-06-19T22:56:24Z</time>
      </trkpt>
      <trkpt lat="45.23768" lon="5.58874">
        <ele>1531</ele>
        <time>2019-06-19T22:56:37Z</time>
      </trkpt>
      <trkpt lat="45.23756" lon="5.58906">
        <ele>1535</ele>
        <time>2019-06-19T22:56:43Z</time>
      </trkpt>
      <trkpt lat="45.23618" lon="5.59041">
        <ele>1538</ele>
        <time>2019-06-19T22:57:22Z</time>
      </trkpt>
      <trkpt lat="45.23604" lon="5.59047">
        <ele>1538</ele>
        <time>2019-06-19T22:57:26Z</time>
      </trkpt>
      <trkpt lat="45.23596" lon="5.59056">
        <ele>1539</ele>
        <time>2019-06-19T22:57:28Z</time>
      </trkpt>
      <trkpt lat="45.23579" lon="5.59092">
        <ele>1547</ele>
        <time>2019-06-19T22:57:35Z</time>
      </trkpt>
      <trkpt lat="45.23585" lon="5.59095">
        <ele>1548</ele>
        <time>2019-06-19T22:57:37Z</time>
      </trkpt>
      <trkpt lat="45.23596" lon="5.59092">
        <ele>1548</ele>
        <time>2019-06-19T22:57:39Z</time>
      </trkpt>
      <trkpt lat="45.23635" lon="5.5909">
        <ele>1549</ele>
        <time>2019-06-19T22:57:48Z</time>
      </trkpt>
      <trkpt lat="45.23641" lon="5.59111">
        <ele>1549</ele>
        <time>2019-06-19T22:57:52Z</time>
      </trkpt>
      <trkpt lat="45.23636" lon="5.59117">
        <ele>1549</ele>
        <time>2019-06-19T22:57:54Z</time>
      </trkpt>
      <trkpt lat="45.23616" lon="5.59131">
        <ele>1551</ele>
        <time>2019-06-19T22:57:59Z</time>
      </trkpt>
      <trkpt lat="45.23583" lon="5.59168">
        <ele>1561</ele>
        <time>2019-06-19T22:58:09Z</time>
      </trkpt>
      <trkpt lat="45.23572" lon="5.59177">
        <ele>1562</ele>
        <time>2019-06-19T22:58:12Z</time>
      </trkpt>
      <trkpt lat="45.2357" lon="5.59181">
        <ele>1563</ele>
        <time>2019-06-19T22:58:12Z</time>
      </trkpt>
      <trkpt lat="45.23573" lon="5.59193">
        <ele>1564</ele>
        <time>2019-06-19T22:58:14Z</time>
      </trkpt>
      <trkpt lat="45.23586" lon="5.59206">
        <ele>1564</ele>
        <time>2019-06-19T22:58:18Z</time>
      </trkpt>
      <trkpt lat="45.23586" lon="5.59213">
        <ele>1565</ele>
        <time>2019-06-19T22:58:19Z</time>
      </trkpt>
      <trkpt lat="45.23581" lon="5.59226">
        <ele>1569</ele>
        <time>2019-06-19T22:58:22Z</time>
      </trkpt>
      <trkpt lat="45.23579" lon="5.59229">
        <ele>1569</ele>
        <time>2019-06-19T22:58:22Z</time>
      </trkpt>
      <trkpt lat="45.23522" lon="5.59247">
        <ele>1573</ele>
        <time>2019-06-19T22:58:36Z</time>
      </trkpt>
      <trkpt lat="45.23517" lon="5.59252">
        <ele>1574</ele>
        <time>2019-06-19T22:58:37Z</time>
      </trkpt>
      <trkpt lat="45.23474" lon="5.59263">
        <ele>1576</ele>
        <time>2019-06-19T22:58:48Z</time>
      </trkpt>
      <trkpt lat="45.23458" lon="5.59264">
        <ele>1576</ele>
        <time>2019-06-19T22:58:51Z</time>
      </trkpt>
      <trkpt lat="45.23436" lon="5.59285">
        <ele>1579</ele>
        <time>2019-06-19T22:58:58Z</time>
      </trkpt>
      <trkpt lat="45.23449" lon="5.59326">
        <ele>1581</ele>
        <time>2019-06-19T22:59:05Z</time>
      </trkpt>
      <trkpt lat="45.23469" lon="5.59352">
        <ele>1583</ele>
        <time>2019-06-19T22:59:11Z</time>
      </trkpt>
      <trkpt lat="45.2349" lon="5.59372">
        <ele>1584</ele>
        <time>2019-06-19T22:59:17Z</time>
      </trkpt>
      <trkpt lat="45.2353" lon="5.59417">
        <ele>1582</ele>
        <time>2019-06-19T22:59:29Z</time>
      </trkpt>
      <trkpt lat="45.23546" lon="5.59448">
        <ele>1584</ele>
        <time>2019-06-19T22:59:35Z</time>
      </trkpt>
      <trkpt lat="45.23558" lon="5.59488">
        <ele>1588</ele>
        <time>2019-06-19T22:59:43Z</time>
      </trkpt>
      <trkpt lat="45.23525" lon="5.59493">
        <ele>1598</ele>
        <time>2019-06-19T22:59:50Z</time>
      </trkpt>
      <trkpt lat="45.23502" lon="5.595">
        <ele>1605</ele>
        <time>2019-06-19T22:59:56Z</time>
      </trkpt>
      <trkpt lat="45.23477" lon="5.59484">
        <ele>1604</ele>
        <time>2019-06-19T23:00:02Z</time>
      </trkpt>
      <trkpt lat="45.23465" lon="5.59479">
        <ele>1603</ele>
        <time>2019-06-19T23:00:05Z</time>
      </trkpt>
      <trkpt lat="45.23455" lon="5.59479">
        <ele>1604</ele>
        <time>2019-06-19T23:00:08Z</time>
      </trkpt>
      <trkpt lat="45.23448" lon="5.59481">
        <ele>1605</ele>
        <time>2019-06-19T23:00:09Z</time>
      </trkpt>
      <trkpt lat="45.23426" lon="5.59506">
        <ele>1610</ele>
        <time>2019-06-19T23:00:16Z</time>
      </trkpt>
      <trkpt lat="45.23399" lon="5.59544">
        <ele>1617</ele>
        <time>2019-06-19T23:00:25Z</time>
      </trkpt>
      <trkpt lat="45.23357" lon="5.5954">
        <ele>1618</ele>
        <time>2019-06-19T23:00:34Z</time>
      </trkpt>
      <trkpt lat="45.23344" lon="5.59549">
        <ele>1619</ele>
        <time>2019-06-19T23:00:38Z</time>
      </trkpt>
      <trkpt lat="45.23335" lon="5.59546">
        <ele>1619</ele>
        <time>2019-06-19T23:00:40Z</time>
      </trkpt>
      <trkpt lat="45.23286" lon="5.59507">
        <ele>1616</ele>
        <time>2019-06-19T23:00:53Z</time>
      </trkpt>
      <trkpt lat="45.2327" lon="5.59504">
        <ele>1616</ele>
        <time>2019-06-19T23:00:57Z</time>
      </trkpt>
      <trkpt lat="45.23264" lon="5.59505">
        <ele>1617</ele>
        <time>2019-06-19T23:00:58Z</time>
      </trkpt>
      <trkpt lat="45.23261" lon="5.59511">
        <ele>1617</ele>
        <time>2019-06-19T23:01:00Z</time>
      </trkpt>
      <trkpt lat="45.23233" lon="5.59524">
        <ele>1618</ele>
        <time>2019-06-19T23:01:06Z</time>
      </trkpt>
      <trkpt lat="45.23211" lon="5.59546">
        <ele>1618</ele>
        <time>2019-06-19T23:01:13Z</time>
      </trkpt>
      <trkpt lat="45.23201" lon="5.59546">
        <ele>1617</ele>
        <time>2019-06-19T23:01:15Z</time>
      </trkpt>
      <trkpt lat="45.2317" lon="5.59533">
        <ele>1617</ele>
        <time>2019-06-19T23:01:23Z</time>
      </trkpt>
      <trkpt lat="45.23159" lon="5.59526">
        <ele>1616</ele>
        <time>2019-06-19T23:01:25Z</time>
      </trkpt>
      <trkpt lat="45.23151" lon="5.59515">
        <ele>1615</ele>
        <time>2019-06-19T23:01:28Z</time>
      </trkpt>
      <trkpt lat="45.23119" lon="5.59444">
        <ele>1610</ele>
        <time>2019-06-19T23:01:42Z</time>
      </trkpt>
      <trkpt lat="45.2311" lon="5.5943">
        <ele>1609</ele>
        <time>2019-06-19T23:01:45Z</time>
      </trkpt>
      <trkpt lat="45.23099" lon="5.5942">
        <ele>1609</ele>
        <time>2019-06-19T23:01:48Z</time>
      </trkpt>
      <trkpt lat="45.23087" lon="5.59414">
        <ele>1609</ele>
        <time>2019-06-19T23:01:51Z</time>
      </trkpt>
      <trkpt lat="45.23051" lon="5.59404">
        <ele>1609</ele>
        <time>2019-06-19T23:02:00Z</time>
      </trkpt>
      <trkpt lat="45.23033" lon="5.59388">
        <ele>1609</ele>
        <time>2019-06-19T23:02:05Z</time>
      </trkpt>
      <trkpt lat="45.23013" lon="5.5938">
        <ele>1610</ele>
        <time>2019-06-19T23:02:09Z</time>
      </trkpt>
      <trkpt lat="45.22992" lon="5.59359">
        <ele>1611</ele>
        <time>2019-06-19T23:02:15Z</time>
      </trkpt>
      <trkpt lat="45.2297" lon="5.59361">
        <ele>1611</ele>
        <time>2019-06-19T23:02:21Z</time>
      </trkpt>
      <trkpt lat="45.22952" lon="5.59351">
        <ele>1611</ele>
        <time>2019-06-19T23:02:25Z</time>
      </trkpt>
      <trkpt lat="45.22932" lon="5.5936">
        <ele>1611</ele>
        <time>2019-06-19T23:02:30Z</time>
      </trkpt>
      <trkpt lat="45.22896" lon="5.59383">
        <ele>1612</ele>
        <time>2019-06-19T23:02:39Z</time>
      </trkpt>
      <trkpt lat="45.2286" lon="5.59384">
        <ele>1613</ele>
        <time>2019-06-19T23:02:48Z</time>
      </trkpt>
      <trkpt lat="45.22834" lon="5.59372">
        <ele>1614</ele>
        <time>2019-06-19T23:02:54Z</time>
      </trkpt>
      <trkpt lat="45.22822" lon="5.59369">
        <ele>1613</ele>
        <time>2019-06-19T23:02:57Z</time>
      </trkpt>
      <trkpt lat="45.22772" lon="5.59378">
        <ele>1611</ele>
        <time>2019-06-19T23:03:09Z</time>
      </trkpt>
      <trkpt lat="45.22747" lon="5.59389">
        <ele>1610</ele>
        <time>2019-06-19T23:03:15Z</time>
      </trkpt>
      <trkpt lat="45.22731" lon="5.59401">
        <ele>1610</ele>
        <time>2019-06-19T23:03:19Z</time>
      </trkpt>
      <trkpt lat="45.22722" lon="5.59402">
        <ele>1610</ele>
        <time>2019-06-19T23:03:21Z</time>
      </trkpt>
      <trkpt lat="45.22714" lon="5.594">
        <ele>1610</ele>
        <time>2019-06-19T23:03:23Z</time>
      </trkpt>
      <trkpt lat="45.22699" lon="5.59389">
        <ele>1610</ele>
        <time>2019-06-19T23:03:27Z</time>
      </trkpt>
      <trkpt lat="45.2268" lon="5.59381">
        <ele>1610</ele>
        <time>2019-06-19T23:03:31Z</time>
      </trkpt>
      <trkpt lat="45.2266" lon="5.59392">
        <ele>1610</ele>
        <time>2019-06-19T23:03:36Z</time>
      </trkpt>
      <trkpt lat="45.2265" lon="5.59394">
        <ele>1610</ele>
        <time>2019-06-19T23:03:39Z</time>
      </trkpt>
      <trkpt lat="45.22627" lon="5.59395">
        <ele>1611</ele>
        <time>2019-06-19T23:03:44Z</time>
      </trkpt>
      <trkpt lat="45.22583" lon="5.59389">
        <ele>1612</ele>
        <time>2019-06-19T23:03:55Z</time>
      </trkpt>
      <trkpt lat="45.22549" lon="5.59395">
        <ele>1613</ele>
        <time>2019-06-19T23:04:03Z</time>
      </trkpt>
      <trkpt lat="45.22498" lon="5.59383">
        <ele>1614</ele>
        <time>2019-06-19T23:04:15Z</time>
      </trkpt>
      <trkpt lat="45.22446" lon="5.59382">
        <ele>1616</ele>
        <time>2019-06-19T23:04:27Z</time>
      </trkpt>
      <trkpt lat="45.22405" lon="5.5937">
        <ele>1618</ele>
        <time>2019-06-19T23:04:37Z</time>
      </trkpt>
      <trkpt lat="45.2235" lon="5.59378">
        <ele>1619</ele>
        <time>2019-06-19T23:04:49Z</time>
      </trkpt>
      <trkpt lat="45.22307" lon="5.59362">
        <ele>1621</ele>
        <time>2019-06-19T23:05:00Z</time>
      </trkpt>
      <trkpt lat="45.22266" lon="5.59331">
        <ele>1621</ele>
        <time>2019-06-19T23:05:11Z</time>
      </trkpt>
      <trkpt lat="45.22188" lon="5.5923">
        <ele>1608</ele>
        <time>2019-06-19T23:05:35Z</time>
      </trkpt>
      <trkpt lat="45.22175" lon="5.59223">
        <ele>1607</ele>
        <time>2019-06-19T23:05:39Z</time>
      </trkpt>
      <trkpt lat="45.22099" lon="5.59237">
        <ele>1608</ele>
        <time>2019-06-19T23:05:56Z</time>
      </trkpt>
      <trkpt lat="45.22065" lon="5.59231">
        <ele>1606</ele>
        <time>2019-06-19T23:06:04Z</time>
      </trkpt>
      <trkpt lat="45.21969" lon="5.59256">
        <ele>1603</ele>
        <time>2019-06-19T23:06:27Z</time>
      </trkpt>
      <trkpt lat="45.21944" lon="5.59253">
        <ele>1601</ele>
        <time>2019-06-19T23:06:33Z</time>
      </trkpt>
      <trkpt lat="45.21914" lon="5.59262">
        <ele>1599</ele>
        <time>2019-06-19T23:06:40Z</time>
      </trkpt>
      <trkpt lat="45.21877" lon="5.59267">
        <ele>1599</ele>
        <time>2019-06-19T23:06:49Z</time>
      </trkpt>
      <trkpt lat="45.21827" lon="5.59268">
        <ele>1598</ele>
        <time>2019-06-19T23:07:01Z</time>
      </trkpt>
      <trkpt lat="45.21809" lon="5.59286">
        <ele>1598</ele>
        <time>2019-06-19T23:07:06Z</time>
      </trkpt>
      <trkpt lat="45.21745" lon="5.59401">
        <ele>1589</ele>
        <time>2019-06-19T23:07:30Z</time>
      </trkpt>
      <trkpt lat="45.21733" lon="5.59417">
        <ele>1590</ele>
        <time>2019-06-19T23:07:34Z</time>
      </trkpt>
      <trkpt lat="45.21719" lon="5.59421">
        <ele>1591</ele>
        <time>2019-06-19T23:07:37Z</time>
      </trkpt>
      <trkpt lat="45.21671" lon="5.59401">
        <ele>1597</ele>
        <time>2019-06-19T23:07:49Z</time>
      </trkpt>
      <trkpt lat="45.21659" lon="5.59336">
        <ele>1603</ele>
        <time>2019-06-19T23:08:00Z</time>
      </trkpt>
      <trkpt lat="45.21656" lon="5.59306">
        <ele>1603</ele>
        <time>2019-06-19T23:08:05Z</time>
      </trkpt>
      <trkpt lat="45.21642" lon="5.59264">
        <ele>1606</ele>
        <time>2019-06-19T23:08:12Z</time>
      </trkpt>
      <trkpt lat="45.21619" lon="5.59222">
        <ele>1611</ele>
        <time>2019-06-19T23:08:21Z</time>
      </trkpt>
      <trkpt lat="45.21598" lon="5.59199">
        <ele>1613</ele>
        <time>2019-06-19T23:08:27Z</time>
      </trkpt>
      <trkpt lat="45.2159" lon="5.59194">
        <ele>1614</ele>
        <time>2019-06-19T23:08:29Z</time>
      </trkpt>
      <trkpt lat="45.21585" lon="5.59182">
        <ele>1614</ele>
        <time>2019-06-19T23:08:32Z</time>
      </trkpt>
      <trkpt lat="45.21577" lon="5.59171">
        <ele>1614</ele>
        <time>2019-06-19T23:08:34Z</time>
      </trkpt>
      <trkpt lat="45.21564" lon="5.59161">
        <ele>1615</ele>
        <time>2019-06-19T23:08:38Z</time>
      </trkpt>
      <trkpt lat="45.21539" lon="5.59163">
        <ele>1618</ele>
        <time>2019-06-19T23:08:44Z</time>
      </trkpt>
      <trkpt lat="45.21534" lon="5.59161">
        <ele>1619</ele>
        <time>2019-06-19T23:08:45Z</time>
      </trkpt>
      <trkpt lat="45.2148" lon="5.59166">
        <ele>1624</ele>
        <time>2019-06-19T23:08:57Z</time>
      </trkpt>
      <trkpt lat="45.2147" lon="5.59158">
        <ele>1625</ele>
        <time>2019-06-19T23:09:00Z</time>
      </trkpt>
      <trkpt lat="45.21448" lon="5.59127">
        <ele>1627</ele>
        <time>2019-06-19T23:09:07Z</time>
      </trkpt>
      <trkpt lat="45.21426" lon="5.59086">
        <ele>1627</ele>
        <time>2019-06-19T23:09:16Z</time>
      </trkpt>
      <trkpt lat="45.21378" lon="5.59051">
        <ele>1629</ele>
        <time>2019-06-19T23:09:28Z</time>
      </trkpt>
      <trkpt lat="45.21347" lon="5.59019">
        <ele>1631</ele>
        <time>2019-06-19T23:09:37Z</time>
      </trkpt>
      <trkpt lat="45.21314" lon="5.58997">
        <ele>1633</ele>
        <time>2019-06-19T23:09:46Z</time>
      </trkpt>
      <trkpt lat="45.21278" lon="5.59014">
        <ele>1635</ele>
        <time>2019-06-19T23:09:55Z</time>
      </trkpt>
      <trkpt lat="45.21241" lon="5.59025">
        <ele>1636</ele>
        <time>2019-06-19T23:10:04Z</time>
      </trkpt>
      <trkpt lat="45.21211" lon="5.59029">
        <ele>1637</ele>
        <time>2019-06-19T23:10:11Z</time>
      </trkpt>
      <trkpt lat="45.21188" lon="5.59027">
        <ele>1637</ele>
        <time>2019-06-19T23:10:16Z</time>
      </trkpt>
      <trkpt lat="45.2116" lon="5.59019">
        <ele>1637</ele>
        <time>2019-06-19T23:10:23Z</time>
      </trkpt>
      <trkpt lat="45.2113" lon="5.58999">
        <ele>1635</ele>
        <time>2019-06-19T23:10:30Z</time>
      </trkpt>
      <trkpt lat="45.21113" lon="5.58981">
        <ele>1633</ele>
        <time>2019-06-19T23:10:35Z</time>
      </trkpt>
      <trkpt lat="45.2109" lon="5.58951">
        <ele>1630</ele>
        <time>2019-06-19T23:10:43Z</time>
      </trkpt>
      <trkpt lat="45.21084" lon="5.58971">
        <ele>1629</ele>
        <time>2019-06-19T23:10:46Z</time>
      </trkpt>
      <trkpt lat="45.21058" lon="5.59031">
        <ele>1626</ele>
        <time>2019-06-19T23:10:58Z</time>
      </trkpt>
      <trkpt lat="45.21046" lon="5.59045">
        <ele>1626</ele>
        <time>2019-06-19T23:11:02Z</time>
      </trkpt>
      <trkpt lat="45.21024" lon="5.59054">
        <ele>1625</ele>
        <time>2019-06-19T23:11:07Z</time>
      </trkpt>
      <trkpt lat="45.21016" lon="5.59062">
        <ele>1625</ele>
        <time>2019-06-19T23:11:09Z</time>
      </trkpt>
      <trkpt lat="45.20995" lon="5.59125">
        <ele>1625</ele>
        <time>2019-06-19T23:11:21Z</time>
      </trkpt>
      <trkpt lat="45.20998" lon="5.59159">
        <ele>1624</ele>
        <time>2019-06-19T23:11:26Z</time>
      </trkpt>
      <trkpt lat="45.20993" lon="5.59172">
        <ele>1624</ele>
        <time>2019-06-19T23:11:29Z</time>
      </trkpt>
      <trkpt lat="45.2099" lon="5.59174">
        <ele>1623</ele>
        <time>2019-06-19T23:11:29Z</time>
      </trkpt>
      <trkpt lat="45.20947" lon="5.59177">
        <ele>1622</ele>
        <time>2019-06-19T23:11:40Z</time>
      </trkpt>
      <trkpt lat="45.20924" lon="5.5916">
        <ele>1622</ele>
        <time>2019-06-19T23:11:46Z</time>
      </trkpt>
      <trkpt lat="45.20895" lon="5.59129">
        <ele>1623</ele>
        <time>2019-06-19T23:11:54Z</time>
      </trkpt>
      <trkpt lat="45.20883" lon="5.59121">
        <ele>1623</ele>
        <time>2019-06-19T23:11:57Z</time>
      </trkpt>
      <trkpt lat="45.20852" lon="5.59107">
        <ele>1623</ele>
        <time>2019-06-19T23:12:05Z</time>
      </trkpt>
      <trkpt lat="45.2084" lon="5.59106">
        <ele>1623</ele>
        <time>2019-06-19T23:12:08Z</time>
      </trkpt>
      <trkpt lat="45.20801" lon="5.59123">
        <ele>1623</ele>
        <time>2019-06-19T23:12:17Z</time>
      </trkpt>
      <trkpt lat="45.20733" lon="5.5916">
        <ele>1623</ele>
        <time>2019-06-19T23:12:34Z</time>
      </trkpt>
      <trkpt lat="45.20725" lon="5.59173">
        <ele>1623</ele>
        <time>2019-06-19T23:12:37Z</time>
      </trkpt>
      <trkpt lat="45.20687" lon="5.59218">
        <ele>1621</ele>
        <time>2019-06-19T23:12:48Z</time>
      </trkpt>
      <trkpt lat="45.2065" lon="5.59216">
        <ele>1623</ele>
        <time>2019-06-19T23:12:57Z</time>
      </trkpt>
      <trkpt lat="45.20622" lon="5.59218">
        <ele>1624</ele>
        <time>2019-06-19T23:13:04Z</time>
      </trkpt>
      <trkpt lat="45.20592" lon="5.59233">
        <ele>1626</ele>
        <time>2019-06-19T23:13:11Z</time>
      </trkpt>
      <trkpt lat="45.20555" lon="5.59256">
        <ele>1627</ele>
        <time>2019-06-19T23:13:21Z</time>
      </trkpt>
      <trkpt lat="45.20523" lon="5.59282">
        <ele>1626</ele>
        <time>2019-06-19T23:13:29Z</time>
      </trkpt>
      <trkpt lat="45.20491" lon="5.59301">
        <ele>1627</ele>
        <time>2019-06-19T23:13:37Z</time>
      </trkpt>
      <trkpt lat="45.2046" lon="5.59311">
        <ele>1626</ele>
        <time>2019-06-19T23:13:45Z</time>
      </trkpt>
      <trkpt lat="45.20447" lon="5.59305">
        <ele>1626</ele>
        <time>2019-06-19T23:13:48Z</time>
      </trkpt>
      <trkpt lat="45.20414" lon="5.59307">
        <ele>1626</ele>
        <time>2019-06-19T23:13:56Z</time>
      </trkpt>
      <trkpt lat="45.20372" lon="5.59297">
        <ele>1627</ele>
        <time>2019-06-19T23:14:06Z</time>
      </trkpt>
      <trkpt lat="45.20297" lon="5.59273">
        <ele>1630</ele>
        <time>2019-06-19T23:14:23Z</time>
      </trkpt>
      <trkpt lat="45.20266" lon="5.59268">
        <ele>1632</ele>
        <time>2019-06-19T23:14:31Z</time>
      </trkpt>
      <trkpt lat="45.20245" lon="5.59259">
        <ele>1633</ele>
        <time>2019-06-19T23:14:36Z</time>
      </trkpt>
      <trkpt lat="45.20215" lon="5.59252">
        <ele>1634</ele>
        <time>2019-06-19T23:14:43Z</time>
      </trkpt>
      <trkpt lat="45.20163" lon="5.59232">
        <ele>1634</ele>
        <time>2019-06-19T23:14:56Z</time>
      </trkpt>
      <trkpt lat="45.20113" lon="5.59222">
        <ele>1632</ele>
        <time>2019-06-19T23:15:07Z</time>
      </trkpt>
      <trkpt lat="45.20069" lon="5.59219">
        <ele>1631</ele>
        <time>2019-06-19T23:15:18Z</time>
      </trkpt>
      <trkpt lat="45.20039" lon="5.59206">
        <ele>1630</ele>
        <time>2019-06-19T23:15:25Z</time>
      </trkpt>
      <trkpt lat="45.19968" lon="5.59187">
        <ele>1631</ele>
        <time>2019-06-19T23:15:42Z</time>
      </trkpt>
      <trkpt lat="45.19943" lon="5.59188">
        <ele>1630</ele>
        <time>2019-06-19T23:15:48Z</time>
      </trkpt>
      <trkpt lat="45.19925" lon="5.59184">
        <ele>1630</ele>
        <time>2019-06-19T23:15:52Z</time>
      </trkpt>
      <trkpt lat="45.19876" lon="5.59179">
        <ele>1631</ele>
        <time>2019-06-19T23:16:03Z</time>
      </trkpt>
      <trkpt lat="45.19857" lon="5.59187">
        <ele>1631</ele>
        <time>2019-06-19T23:16:08Z</time>
      </trkpt>
      <trkpt lat="45.19807" lon="5.59185">
        <ele>1633</ele>
        <time>2019-06-19T23:16:20Z</time>
      </trkpt>
      <trkpt lat="45.19779" lon="5.59202">
        <ele>1634</ele>
        <time>2019-06-19T23:16:27Z</time>
      </trkpt>
      <trkpt lat="45.19768" lon="5.59196">
        <ele>1635</ele>
        <time>2019-06-19T23:16:30Z</time>
      </trkpt>
      <trkpt lat="45.19729" lon="5.59187">
        <ele>1639</ele>
        <time>2019-06-19T23:16:39Z</time>
      </trkpt>
      <trkpt lat="45.19699" lon="5.5917">
        <ele>1646</ele>
        <time>2019-06-19T23:16:46Z</time>
      </trkpt>
      <trkpt lat="45.19658" lon="5.59156">
        <ele>1652</ele>
        <time>2019-06-19T23:16:56Z</time>
      </trkpt>
      <trkpt lat="45.19603" lon="5.59168">
        <ele>1656</ele>
        <time>2019-06-19T23:17:09Z</time>
      </trkpt>
      <trkpt lat="45.19454" lon="5.59218">
        <ele>1655</ele>
        <time>2019-06-19T23:17:45Z</time>
      </trkpt>
      <trkpt lat="45.19432" lon="5.59237">
        <ele>1654</ele>
        <time>2019-06-19T23:17:51Z</time>
      </trkpt>
      <trkpt lat="45.19419" lon="5.59241">
        <ele>1654</ele>
        <time>2019-06-19T23:17:54Z</time>
      </trkpt>
      <trkpt lat="45.19373" lon="5.59244">
        <ele>1649</ele>
        <time>2019-06-19T23:18:05Z</time>
      </trkpt>
      <trkpt lat="45.19318" lon="5.59233">
        <ele>1643</ele>
        <time>2019-06-19T23:18:18Z</time>
      </trkpt>
      <trkpt lat="45.193" lon="5.59226">
        <ele>1642</ele>
        <time>2019-06-19T23:18:22Z</time>
      </trkpt>
      <trkpt lat="45.19274" lon="5.59221">
        <ele>1641</ele>
        <time>2019-06-19T23:18:28Z</time>
      </trkpt>
      <trkpt lat="45.19215" lon="5.59201">
        <ele>1643</ele>
        <time>2019-06-19T23:18:42Z</time>
      </trkpt>
      <trkpt lat="45.19168" lon="5.59191">
        <ele>1650</ele>
        <time>2019-06-19T23:18:54Z</time>
      </trkpt>
      <trkpt lat="45.19102" lon="5.59164">
        <ele>1666</ele>
        <time>2019-06-19T23:19:10Z</time>
      </trkpt>
      <trkpt lat="45.19091" lon="5.59163">
        <ele>1668</ele>
        <time>2019-06-19T23:19:12Z</time>
      </trkpt>
      <trkpt lat="45.19063" lon="5.59151">
        <ele>1671</ele>
        <time>2019-06-19T23:19:19Z</time>
      </trkpt>
      <trkpt lat="45.18999" lon="5.59137">
        <ele>1679</ele>
        <time>2019-06-19T23:19:34Z</time>
      </trkpt>
      <trkpt lat="45.18986" lon="5.59139">
        <ele>1680</ele>
        <time>2019-06-19T23:19:37Z</time>
      </trkpt>
      <trkpt lat="45.18962" lon="5.59135">
        <ele>1682</ele>
        <time>2019-06-19T23:19:43Z</time>
      </trkpt>
      <trkpt lat="45.18936" lon="5.59134">
        <ele>1684</ele>
        <time>2019-06-19T23:19:49Z</time>
      </trkpt>
      <trkpt lat="45.18886" lon="5.59139">
        <ele>1687</ele>
        <time>2019-06-19T23:20:01Z</time>
      </trkpt>
      <trkpt lat="45.18873" lon="5.59136">
        <ele>1689</ele>
        <time>2019-06-19T23:20:04Z</time>
      </trkpt>
      <trkpt lat="45.18851" lon="5.59138">
        <ele>1690</ele>
        <time>2019-06-19T23:20:09Z</time>
      </trkpt>
      <trkpt lat="45.18817" lon="5.5915">
        <ele>1692</ele>
        <time>2019-06-19T23:20:17Z</time>
      </trkpt>
      <trkpt lat="45.18808" lon="5.59156">
        <ele>1692</ele>
        <time>2019-06-19T23:20:19Z</time>
      </trkpt>
      <trkpt lat="45.18797" lon="5.59169">
        <ele>1692</ele>
        <time>2019-06-19T23:20:23Z</time>
      </trkpt>
      <trkpt lat="45.18791" lon="5.59183">
        <ele>1689</ele>
        <time>2019-06-19T23:20:25Z</time>
      </trkpt>
      <trkpt lat="45.18787" lon="5.59186">
        <ele>1689</ele>
        <time>2019-06-19T23:20:26Z</time>
      </trkpt>
      <trkpt lat="45.18769" lon="5.59193">
        <ele>1692</ele>
        <time>2019-06-19T23:20:31Z</time>
      </trkpt>
      <trkpt lat="45.18755" lon="5.59194">
        <ele>1696</ele>
        <time>2019-06-19T23:20:34Z</time>
      </trkpt>
      <trkpt lat="45.18725" lon="5.59221">
        <ele>1694</ele>
        <time>2019-06-19T23:20:42Z</time>
      </trkpt>
      <trkpt lat="45.18706" lon="5.59243">
        <ele>1692</ele>
        <time>2019-06-19T23:20:48Z</time>
      </trkpt>
      <trkpt lat="45.18675" lon="5.5926">
        <ele>1690</ele>
        <time>2019-06-19T23:20:56Z</time>
      </trkpt>
      <trkpt lat="45.18671" lon="5.59259">
        <ele>1691</ele>
        <time>2019-06-19T23:20:57Z</time>
      </trkpt>
      <trkpt lat="45.18655" lon="5.59249">
        <ele>1692</ele>
        <time>2019-06-19T23:21:01Z</time>
      </trkpt>
      <trkpt lat="45.18636" lon="5.59232">
        <ele>1691</ele>
        <time>2019-06-19T23:21:06Z</time>
      </trkpt>
      <trkpt lat="45.18638" lon="5.59228">
        <ele>1693</ele>
        <time>2019-06-19T23:21:07Z</time>
      </trkpt>
      <trkpt lat="45.18608" lon="5.59182">
        <ele>1702</ele>
        <time>2019-06-19T23:21:17Z</time>
      </trkpt>
      <trkpt lat="45.18595" lon="5.59167">
        <ele>1705</ele>
        <time>2019-06-19T23:21:21Z</time>
      </trkpt>
      <trkpt lat="45.18582" lon="5.5916">
        <ele>1704</ele>
        <time>2019-06-19T23:21:24Z</time>
      </trkpt>
      <trkpt lat="45.18573" lon="5.5915">
        <ele>1701</ele>
        <time>2019-06-19T23:21:27Z</time>
      </trkpt>
      <trkpt lat="45.18565" lon="5.59113">
        <ele>1704</ele>
        <time>2019-06-19T23:21:33Z</time>
      </trkpt>
      <trkpt lat="45.18556" lon="5.5911">
        <ele>1701</ele>
        <time>2019-06-19T23:21:36Z</time>
      </trkpt>
      <trkpt lat="45.18545" lon="5.59102">
        <ele>1699</ele>
        <time>2019-06-19T23:21:38Z</time>
      </trkpt>
      <trkpt lat="45.18501" lon="5.59045">
        <ele>1695</ele>
        <time>2019-06-19T23:21:52Z</time>
      </trkpt>
      <trkpt lat="45.18481" lon="5.59025">
        <ele>1689</ele>
        <time>2019-06-19T23:21:58Z</time>
      </trkpt>
      <trkpt lat="45.18468" lon="5.58983">
        <ele>1690</ele>
        <time>2019-06-19T23:22:06Z</time>
      </trkpt>
      <trkpt lat="45.18429" lon="5.58937">
        <ele>1685</ele>
        <time>2019-06-19T23:22:18Z</time>
      </trkpt>
      <trkpt lat="45.18422" lon="5.5893">
        <ele>1684</ele>
        <time>2019-06-19T23:22:20Z</time>
      </trkpt>
      <trkpt lat="45.18411" lon="5.58924">
        <ele>1682</ele>
        <time>2019-06-19T23:22:22Z</time>
      </trkpt>
      <trkpt lat="45.18384" lon="5.58897">
        <ele>1676</ele>
        <time>2019-06-19T23:22:30Z</time>
      </trkpt>
      <trkpt lat="45.18361" lon="5.58854">
        <ele>1676</ele>
        <time>2019-06-19T23:22:39Z</time>
      </trkpt>
      <trkpt lat="45.18342" lon="5.58835">
        <ele>1677</ele>
        <time>2019-06-19T23:22:44Z</time>
      </trkpt>
      <trkpt lat="45.18324" lon="5.58812">
        <ele>1674</ele>
        <time>2019-06-19T23:22:50Z</time>
      </trkpt>
      <trkpt lat="45.18269" lon="5.58792">
        <ele>1662</ele>
        <time>2019-06-19T23:23:03Z</time>
      </trkpt>
      <trkpt lat="45.18253" lon="5.5878">
        <ele>1661</ele>
        <time>2019-06-19T23:23:07Z</time>
      </trkpt>
      <trkpt lat="45.1824" lon="5.58757">
        <ele>1664</ele>
        <time>2019-06-19T23:23:12Z</time>
      </trkpt>
      <trkpt lat="45.182" lon="5.58737">
        <ele>1659</ele>
        <time>2019-06-19T23:23:22Z</time>
      </trkpt>
      <trkpt lat="45.18129" lon="5.58686">
        <ele>1659</ele>
        <time>2019-06-19T23:23:41Z</time>
      </trkpt>
      <trkpt lat="45.18107" lon="5.58674">
        <ele>1663</ele>
        <time>2019-06-19T23:23:46Z</time>
      </trkpt>
      <trkpt lat="45.18078" lon="5.58651">
        <ele>1665</ele>
        <time>2019-06-19T23:23:54Z</time>
      </trkpt>
      <trkpt lat="45.1803" lon="5.58622">
        <ele>1657</ele>
        <time>2019-06-19T23:24:06Z</time>
      </trkpt>
      <trkpt lat="45.17982" lon="5.58588">
        <ele>1657</ele>
        <time>2019-06-19T23:24:19Z</time>
      </trkpt>
      <trkpt lat="45.17967" lon="5.58584">
        <ele>1658</ele>
        <time>2019-06-19T23:24:22Z</time>
      </trkpt>
      <trkpt lat="45.17939" lon="5.58582">
        <ele>1658</ele>
        <time>2019-06-19T23:24:29Z</time>
      </trkpt>
      <trkpt lat="45.17908" lon="5.58574">
        <ele>1660</ele>
        <time>2019-06-19T23:24:36Z</time>
      </trkpt>
      <trkpt lat="45.17879" lon="5.58578">
        <ele>1664</ele>
        <time>2019-06-19T23:24:43Z</time>
      </trkpt>
      <trkpt lat="45.17862" lon="5.58592">
        <ele>1663</ele>
        <time>2019-06-19T23:24:48Z</time>
      </trkpt>
      <trkpt lat="45.17837" lon="5.58607">
        <ele>1661</ele>
        <time>2019-06-19T23:24:54Z</time>
      </trkpt>
      <trkpt lat="45.17829" lon="5.58611">
        <ele>1661</ele>
        <time>2019-06-19T23:24:56Z</time>
      </trkpt>
      <trkpt lat="45.1781" lon="5.58614">
        <ele>1662</ele>
        <time>2019-06-19T23:25:00Z</time>
      </trkpt>
      <trkpt lat="45.17788" lon="5.58632">
        <ele>1660</ele>
        <time>2019-06-19T23:25:06Z</time>
      </trkpt>
      <trkpt lat="45.17766" lon="5.58638">
        <ele>1661</ele>
        <time>2019-06-19T23:25:12Z</time>
      </trkpt>
      <trkpt lat="45.17739" lon="5.58638">
        <ele>1665</ele>
        <time>2019-06-19T23:25:18Z</time>
      </trkpt>
      <trkpt lat="45.17721" lon="5.58645">
        <ele>1666</ele>
        <time>2019-06-19T23:25:22Z</time>
      </trkpt>
      <trkpt lat="45.177" lon="5.58648">
        <ele>1667</ele>
        <time>2019-06-19T23:25:27Z</time>
      </trkpt>
      <trkpt lat="45.1769" lon="5.58647">
        <ele>1669</ele>
        <time>2019-06-19T23:25:29Z</time>
      </trkpt>
      <trkpt lat="45.17684" lon="5.58651">
        <ele>1669</ele>
        <time>2019-06-19T23:25:31Z</time>
      </trkpt>
      <trkpt lat="45.17675" lon="5.58649">
        <ele>1670</ele>
        <time>2019-06-19T23:25:33Z</time>
      </trkpt>
      <trkpt lat="45.17672" lon="5.58645">
        <ele>1671</ele>
        <time>2019-06-19T23:25:34Z</time>
      </trkpt>
      <trkpt lat="45.17617" lon="5.58618">
        <ele>1676</ele>
        <time>2019-06-19T23:25:48Z</time>
      </trkpt>
      <trkpt lat="45.17603" lon="5.58607">
        <ele>1678</ele>
        <time>2019-06-19T23:25:51Z</time>
      </trkpt>
      <trkpt lat="45.17599" lon="5.58601">
        <ele>1680</ele>
        <time>2019-06-19T23:25:53Z</time>
      </trkpt>
      <trkpt lat="45.17527" lon="5.58564">
        <ele>1678</ele>
        <time>2019-06-19T23:26:11Z</time>
      </trkpt>
      <trkpt lat="45.1751" lon="5.58549">
        <ele>1678</ele>
        <time>2019-06-19T23:26:15Z</time>
      </trkpt>
      <trkpt lat="45.175" lon="5.58545">
        <ele>1677</ele>
        <time>2019-06-19T23:26:18Z</time>
      </trkpt>
      <trkpt lat="45.17463" lon="5.58545">
        <ele>1671</ele>
        <time>2019-06-19T23:26:26Z</time>
      </trkpt>
      <trkpt lat="45.17417" lon="5.58516">
        <ele>1671</ele>
        <time>2019-06-19T23:26:38Z</time>
      </trkpt>
      <trkpt lat="45.1741" lon="5.58508">
        <ele>1670</ele>
        <time>2019-06-19T23:26:40Z</time>
      </trkpt>
      <trkpt lat="45.17395" lon="5.585">
        <ele>1667</ele>
        <time>2019-06-19T23:26:44Z</time>
      </trkpt>
      <trkpt lat="45.17371" lon="5.58479">
        <ele>1661</ele>
        <time>2019-06-19T23:26:51Z</time>
      </trkpt>
      <trkpt lat="45.17341" lon="5.58465">
        <ele>1654</ele>
        <time>2019-06-19T23:26:58Z</time>
      </trkpt>
      <trkpt lat="45.17319" lon="5.58449">
        <ele>1651</ele>
        <time>2019-06-19T23:27:04Z</time>
      </trkpt>
      <trkpt lat="45.17307" lon="5.58432">
        <ele>1652</ele>
        <time>2019-06-19T23:27:08Z</time>
      </trkpt>
      <trkpt lat="45.17289" lon="5.58387">
        <ele>1651</ele>
        <time>2019-06-19T23:27:16Z</time>
      </trkpt>
      <trkpt lat="45.17344" lon="5.58332">
        <ele>1661</ele>
        <time>2019-06-19T23:27:32Z</time>
      </trkpt>
      <trkpt lat="45.17383" lon="5.58279">
        <ele>1651</ele>
        <time>2019-06-19T23:27:45Z</time>
      </trkpt>
      <trkpt lat="45.1742" lon="5.58211">
        <ele>1639</ele>
        <time>2019-06-19T23:27:59Z</time>
      </trkpt>
      <trkpt lat="45.17437" lon="5.58173">
        <ele>1629</ele>
        <time>2019-06-19T23:28:06Z</time>
      </trkpt>
      <trkpt lat="45.17474" lon="5.58108">
        <ele>1621</ele>
        <time>2019-06-19T23:28:20Z</time>
      </trkpt>
      <trkpt lat="45.17485" lon="5.58096">
        <ele>1623</ele>
        <time>2019-06-19T23:28:23Z</time>
      </trkpt>
      <trkpt lat="45.17538" lon="5.5806">
        <ele>1623</ele>
        <time>2019-06-19T23:28:37Z</time>
      </trkpt>
      <trkpt lat="45.17524" lon="5.58035">
        <ele>1618</ele>
        <time>2019-06-19T23:28:42Z</time>
      </trkpt>
      <trkpt lat="45.17501" lon="5.58014">
        <ele>1612</ele>
        <time>2019-06-19T23:28:48Z</time>
      </trkpt>
      <trkpt lat="45.17504" lon="5.57996">
        <ele>1609</ele>
        <time>2019-06-19T23:28:52Z</time>
      </trkpt>
      <trkpt lat="45.17522" lon="5.57972">
        <ele>1605</ele>
        <time>2019-06-19T23:28:57Z</time>
      </trkpt>
      <trkpt lat="45.1752" lon="5.57966">
        <ele>1604</ele>
        <time>2019-06-19T23:28:58Z</time>
      </trkpt>
      <trkpt lat="45.17496" lon="5.57942">
        <ele>1594</ele>
        <time>2019-06-19T23:29:05Z</time>
      </trkpt>
      <trkpt lat="45.17495" lon="5.57931">
        <ele>1591</ele>
        <time>2019-06-19T23:29:07Z</time>
      </trkpt>
      <trkpt lat="45.175" lon="5.57919">
        <ele>1592</ele>
        <time>2019-06-19T23:29:09Z</time>
      </trkpt>
      <trkpt lat="45.17523" lon="5.57889">
        <ele>1589</ele>
        <time>2019-06-19T23:29:17Z</time>
      </trkpt>
      <trkpt lat="45.17501" lon="5.57868">
        <ele>1582</ele>
        <time>2019-06-19T23:29:23Z</time>
      </trkpt>
      <trkpt lat="45.17502" lon="5.57843">
        <ele>1578</ele>
        <time>2019-06-19T23:29:27Z</time>
      </trkpt>
      <trkpt lat="45.17508" lon="5.57832">
        <ele>1577</ele>
        <time>2019-06-19T23:29:29Z</time>
      </trkpt>
      <trkpt lat="45.1754" lon="5.57794">
        <ele>1572</ele>
        <time>2019-06-19T23:29:39Z</time>
      </trkpt>
      <trkpt lat="45.17495" lon="5.57764">
        <ele>1558</ele>
        <time>2019-06-19T23:29:51Z</time>
      </trkpt>
      <trkpt lat="45.1749" lon="5.5775">
        <ele>1552</ele>
        <time>2019-06-19T23:29:53Z</time>
      </trkpt>
      <trkpt lat="45.17493" lon="5.57743">
        <ele>1553</ele>
        <time>2019-06-19T23:29:55Z</time>
      </trkpt>
      <trkpt lat="45.17503" lon="5.57733">
        <ele>1555</ele>
        <time>2019-06-19T23:29:57Z</time>
      </trkpt>
      <trkpt lat="45.17532" lon="5.57716">
        <ele>1553</ele>
        <time>2019-06-19T23:30:05Z</time>
      </trkpt>
      <trkpt lat="45.17455" lon="5.57619">
        <ele>1517</ele>
        <time>2019-06-19T23:30:29Z</time>
      </trkpt>
      <trkpt lat="45.17437" lon="5.57672">
        <ele>1515</ele>
        <time>2019-06-19T23:30:38Z</time>
      </trkpt>
      <trkpt lat="45.17432" lon="5.57749">
        <ele>1520</ele>
        <time>2019-06-19T23:30:51Z</time>
      </trkpt>
      <trkpt lat="45.17419" lon="5.57821">
        <ele>1524</ele>
        <time>2019-06-19T23:31:03Z</time>
      </trkpt>
      <trkpt lat="45.17398" lon="5.57885">
        <ele>1525</ele>
        <time>2019-06-19T23:31:15Z</time>
      </trkpt>
      <trkpt lat="45.17375" lon="5.57935">
        <ele>1524</ele>
        <time>2019-06-19T23:31:25Z</time>
      </trkpt>
      <trkpt lat="45.17347" lon="5.57979">
        <ele>1521</ele>
        <time>2019-06-19T23:31:35Z</time>
      </trkpt>
      <trkpt lat="45.17312" lon="5.57999">
        <ele>1516</ele>
        <time>2019-06-19T23:31:43Z</time>
      </trkpt>
      <trkpt lat="45.17299" lon="5.58012">
        <ele>1518</ele>
        <time>2019-06-19T23:31:47Z</time>
      </trkpt>
      <trkpt lat="45.17248" lon="5.58041">
        <ele>1516</ele>
        <time>2019-06-19T23:32:00Z</time>
      </trkpt>
      <trkpt lat="45.17217" lon="5.58037">
        <ele>1518</ele>
        <time>2019-06-19T23:32:07Z</time>
      </trkpt>
      <trkpt lat="45.17193" lon="5.58029">
        <ele>1518</ele>
        <time>2019-06-19T23:32:13Z</time>
      </trkpt>
      <trkpt lat="45.17036" lon="5.5793">
        <ele>1509</ele>
        <time>2019-06-19T23:32:53Z</time>
      </trkpt>
      <trkpt lat="45.17017" lon="5.57922">
        <ele>1509</ele>
        <time>2019-06-19T23:32:58Z</time>
      </trkpt>
      <trkpt lat="45.16987" lon="5.57923">
        <ele>1511</ele>
        <time>2019-06-19T23:33:05Z</time>
      </trkpt>
      <trkpt lat="45.16958" lon="5.57913">
        <ele>1509</ele>
        <time>2019-06-19T23:33:12Z</time>
      </trkpt>
      <trkpt lat="45.16837" lon="5.57909">
        <ele>1508</ele>
        <time>2019-06-19T23:33:40Z</time>
      </trkpt>
      <trkpt lat="45.16824" lon="5.57902">
        <ele>1506</ele>
        <time>2019-06-19T23:33:43Z</time>
      </trkpt>
      <trkpt lat="45.16801" lon="5.57881">
        <ele>1499</ele>
        <time>2019-06-19T23:33:50Z</time>
      </trkpt>
      <trkpt lat="45.16776" lon="5.57865">
        <ele>1494</ele>
        <time>2019-06-19T23:33:56Z</time>
      </trkpt>
      <trkpt lat="45.16777" lon="5.57859">
        <ele>1492</ele>
        <time>2019-06-19T23:33:57Z</time>
      </trkpt>
      <trkpt lat="45.16808" lon="5.57844">
        <ele>1490</ele>
        <time>2019-06-19T23:34:05Z</time>
      </trkpt>
      <trkpt lat="45.16794" lon="5.57831">
        <ele>1486</ele>
        <time>2019-06-19T23:34:09Z</time>
      </trkpt>
      <trkpt lat="45.16749" lon="5.57805">
        <ele>1479</ele>
        <time>2019-06-19T23:34:20Z</time>
      </trkpt>
      <trkpt lat="45.16715" lon="5.57781">
        <ele>1476</ele>
        <time>2019-06-19T23:34:29Z</time>
      </trkpt>
      <trkpt lat="45.16677" lon="5.57775">
        <ele>1477</ele>
        <time>2019-06-19T23:34:38Z</time>
      </trkpt>
      <trkpt lat="45.16661" lon="5.57767">
        <ele>1475</ele>
        <time>2019-06-19T23:34:42Z</time>
      </trkpt>
      <trkpt lat="45.16619" lon="5.57755">
        <ele>1470</ele>
        <time>2019-06-19T23:34:52Z</time>
      </trkpt>
      <trkpt lat="45.16591" lon="5.57752">
        <ele>1468</ele>
        <time>2019-06-19T23:34:58Z</time>
      </trkpt>
      <trkpt lat="45.16559" lon="5.57738">
        <ele>1469</ele>
        <time>2019-06-19T23:35:06Z</time>
      </trkpt>
      <trkpt lat="45.16556" lon="5.57728">
        <ele>1467</ele>
        <time>2019-06-19T23:35:08Z</time>
      </trkpt>
      <trkpt lat="45.16557" lon="5.57706">
        <ele>1460</ele>
        <time>2019-06-19T23:35:12Z</time>
      </trkpt>
      <trkpt lat="45.1655" lon="5.57658">
        <ele>1449</ele>
        <time>2019-06-19T23:35:20Z</time>
      </trkpt>
      <trkpt lat="45.16525" lon="5.57611">
        <ele>1448</ele>
        <time>2019-06-19T23:35:29Z</time>
      </trkpt>
      <trkpt lat="45.16527" lon="5.57606">
        <ele>1446</ele>
        <time>2019-06-19T23:35:30Z</time>
      </trkpt>
      <trkpt lat="45.16532" lon="5.57605">
        <ele>1444</ele>
        <time>2019-06-19T23:35:31Z</time>
      </trkpt>
      <trkpt lat="45.1657" lon="5.57617">
        <ele>1434</ele>
        <time>2019-06-19T23:35:41Z</time>
      </trkpt>
      <trkpt lat="45.16581" lon="5.57623">
        <ele>1432</ele>
        <time>2019-06-19T23:35:43Z</time>
      </trkpt>
      <trkpt lat="45.16581" lon="5.57625">
        <ele>1432</ele>
        <time>2019-06-19T23:35:44Z</time>
      </trkpt>
      <trkpt lat="45.16583" lon="5.57624">
        <ele>1431</ele>
        <time>2019-06-19T23:35:44Z</time>
      </trkpt>
      <trkpt lat="45.16581" lon="5.57617">
        <ele>1430</ele>
        <time>2019-06-19T23:35:45Z</time>
      </trkpt>
      <trkpt lat="45.16554" lon="5.57574">
        <ele>1431</ele>
        <time>2019-06-19T23:35:55Z</time>
      </trkpt>
      <trkpt lat="45.16576" lon="5.5758">
        <ele>1424</ele>
        <time>2019-06-19T23:36:00Z</time>
      </trkpt>
      <trkpt lat="45.16597" lon="5.57598">
        <ele>1425</ele>
        <time>2019-06-19T23:36:06Z</time>
      </trkpt>
      <trkpt lat="45.166" lon="5.57598">
        <ele>1425</ele>
        <time>2019-06-19T23:36:07Z</time>
      </trkpt>
      <trkpt lat="45.166" lon="5.5757">
        <ele>1418</ele>
        <time>2019-06-19T23:36:11Z</time>
      </trkpt>
      <trkpt lat="45.16598" lon="5.57562">
        <ele>1417</ele>
        <time>2019-06-19T23:36:13Z</time>
      </trkpt>
      <trkpt lat="45.16616" lon="5.57568">
        <ele>1417</ele>
        <time>2019-06-19T23:36:17Z</time>
      </trkpt>
      <trkpt lat="45.16601" lon="5.57517">
        <ele>1406</ele>
        <time>2019-06-19T23:36:26Z</time>
      </trkpt>
      <trkpt lat="45.16607" lon="5.57523">
        <ele>1406</ele>
        <time>2019-06-19T23:36:28Z</time>
      </trkpt>
      <trkpt lat="45.16609" lon="5.57518">
        <ele>1405</ele>
        <time>2019-06-19T23:36:29Z</time>
      </trkpt>
      <trkpt lat="45.16603" lon="5.57438">
        <ele>1388</ele>
        <time>2019-06-19T23:36:42Z</time>
      </trkpt>
      <trkpt lat="45.16609" lon="5.5732">
        <ele>1371</ele>
        <time>2019-06-19T23:37:01Z</time>
      </trkpt>
      <trkpt lat="45.16605" lon="5.57302">
        <ele>1372</ele>
        <time>2019-06-19T23:37:04Z</time>
      </trkpt>
      <trkpt lat="45.1662" lon="5.57205">
        <ele>1357</ele>
        <time>2019-06-19T23:37:21Z</time>
      </trkpt>
      <trkpt lat="45.16632" lon="5.57254">
        <ele>1355</ele>
        <time>2019-06-19T23:37:29Z</time>
      </trkpt>
      <trkpt lat="45.16648" lon="5.57292">
        <ele>1350</ele>
        <time>2019-06-19T23:37:37Z</time>
      </trkpt>
      <trkpt lat="45.16658" lon="5.57278">
        <ele>1344</ele>
        <time>2019-06-19T23:37:40Z</time>
      </trkpt>
      <trkpt lat="45.16665" lon="5.57167">
        <ele>1328</ele>
        <time>2019-06-19T23:37:58Z</time>
      </trkpt>
      <trkpt lat="45.16659" lon="5.57151">
        <ele>1329</ele>
        <time>2019-06-19T23:38:01Z</time>
      </trkpt>
      <trkpt lat="45.16691" lon="5.57184">
        <ele>1320</ele>
        <time>2019-06-19T23:38:10Z</time>
      </trkpt>
      <trkpt lat="45.16695" lon="5.57183">
        <ele>1318</ele>
        <time>2019-06-19T23:38:11Z</time>
      </trkpt>
      <trkpt lat="45.16695" lon="5.57121">
        <ele>1308</ele>
        <time>2019-06-19T23:38:22Z</time>
      </trkpt>
      <trkpt lat="45.16703" lon="5.57043">
        <ele>1297</ele>
        <time>2019-06-19T23:38:35Z</time>
      </trkpt>
      <trkpt lat="45.1675" lon="5.56897">
        <ele>1273</ele>
        <time>2019-06-19T23:39:01Z</time>
      </trkpt>
      <trkpt lat="45.16753" lon="5.56865">
        <ele>1276</ele>
        <time>2019-06-19T23:39:06Z</time>
      </trkpt>
      <trkpt lat="45.1675" lon="5.56886">
        <ele>1275</ele>
        <time>2019-06-19T23:39:10Z</time>
      </trkpt>
      <trkpt lat="45.16755" lon="5.56977">
        <ele>1266</ele>
        <time>2019-06-19T23:39:25Z</time>
      </trkpt>
      <trkpt lat="45.16802" lon="5.5689">
        <ele>1244</ele>
        <time>2019-06-19T23:39:43Z</time>
      </trkpt>
      <trkpt lat="45.16829" lon="5.56822">
        <ele>1235</ele>
        <time>2019-06-19T23:39:56Z</time>
      </trkpt>
      <trkpt lat="45.16842" lon="5.56755">
        <ele>1236</ele>
        <time>2019-06-19T23:40:07Z</time>
      </trkpt>
      <trkpt lat="45.16852" lon="5.56731">
        <ele>1235</ele>
        <time>2019-06-19T23:40:12Z</time>
      </trkpt>
      <trkpt lat="45.1686" lon="5.5679">
        <ele>1224</ele>
        <time>2019-06-19T23:40:22Z</time>
      </trkpt>
      <trkpt lat="45.1686" lon="5.56887">
        <ele>1217</ele>
        <time>2019-06-19T23:40:38Z</time>
      </trkpt>
      <trkpt lat="45.16869" lon="5.56926">
        <ele>1213</ele>
        <time>2019-06-19T23:40:44Z</time>
      </trkpt>
      <trkpt lat="45.16883" lon="5.56945">
        <ele>1211</ele>
        <time>2019-06-19T23:40:49Z</time>
      </trkpt>
      <trkpt lat="45.16881" lon="5.56924">
        <ele>1209</ele>
        <time>2019-06-19T23:40:52Z</time>
      </trkpt>
      <trkpt lat="45.16889" lon="5.56926">
        <ele>1207</ele>
        <time>2019-06-19T23:40:54Z</time>
      </trkpt>
      <trkpt lat="45.16896" lon="5.56919">
        <ele>1204</ele>
        <time>2019-06-19T23:40:56Z</time>
      </trkpt>
      <trkpt lat="45.16904" lon="5.56902">
        <ele>1201</ele>
        <time>2019-06-19T23:41:00Z</time>
      </trkpt>
      <trkpt lat="45.16907" lon="5.56895">
        <ele>1200</ele>
        <time>2019-06-19T23:41:01Z</time>
      </trkpt>
      <trkpt lat="45.16913" lon="5.56857">
        <ele>1198</ele>
        <time>2019-06-19T23:41:07Z</time>
      </trkpt>
      <trkpt lat="45.16924" lon="5.56826">
        <ele>1200</ele>
        <time>2019-06-19T23:41:13Z</time>
      </trkpt>
      <trkpt lat="45.16934" lon="5.5677">
        <ele>1203</ele>
        <time>2019-06-19T23:41:23Z</time>
      </trkpt>
      <trkpt lat="45.16932" lon="5.56734">
        <ele>1202</ele>
        <time>2019-06-19T23:41:29Z</time>
      </trkpt>
      <trkpt lat="45.16937" lon="5.56708">
        <ele>1200</ele>
        <time>2019-06-19T23:41:33Z</time>
      </trkpt>
      <trkpt lat="45.16961" lon="5.5665">
        <ele>1191</ele>
        <time>2019-06-19T23:41:44Z</time>
      </trkpt>
      <trkpt lat="45.16982" lon="5.5662">
        <ele>1181</ele>
        <time>2019-06-19T23:41:51Z</time>
      </trkpt>
      <trkpt lat="45.16987" lon="5.56599">
        <ele>1175</ele>
        <time>2019-06-19T23:41:55Z</time>
      </trkpt>
      <trkpt lat="45.16987" lon="5.56563">
        <ele>1173</ele>
        <time>2019-06-19T23:42:01Z</time>
      </trkpt>
      <trkpt lat="45.1699" lon="5.56546">
        <ele>1170</ele>
        <time>2019-06-19T23:42:04Z</time>
      </trkpt>
      <trkpt lat="45.17034" lon="5.56426">
        <ele>1150</ele>
        <time>2019-06-19T23:42:26Z</time>
      </trkpt>
      <trkpt lat="45.17038" lon="5.56392">
        <ele>1146</ele>
        <time>2019-06-19T23:42:32Z</time>
      </trkpt>
      <trkpt lat="45.17037" lon="5.56359">
        <ele>1143</ele>
        <time>2019-06-19T23:42:37Z</time>
      </trkpt>
      <trkpt lat="45.1705" lon="5.56198">
        <ele>1124</ele>
        <time>2019-06-19T23:43:04Z</time>
      </trkpt>
      <trkpt lat="45.17063" lon="5.56134">
        <ele>1121</ele>
        <time>2019-06-19T23:43:15Z</time>
      </trkpt>
      <trkpt lat="45.17014" lon="5.56082">
        <ele>1121</ele>
        <time>2019-06-19T23:43:29Z</time>
      </trkpt>
      <trkpt lat="45.16959" lon="5.56045">
        <ele>1117</ele>
        <time>2019-06-19T23:43:43Z</time>
      </trkpt>
      <trkpt lat="45.1695" lon="5.56036">
        <ele>1116</ele>
        <time>2019-06-19T23:43:46Z</time>
      </trkpt>
      <trkpt lat="45.16942" lon="5.56018">
        <ele>1115</ele>
        <time>2019-06-19T23:43:49Z</time>
      </trkpt>
      <trkpt lat="45.1692" lon="5.55896">
        <ele>1109</ele>
        <time>2019-06-19T23:44:10Z</time>
      </trkpt>
      <trkpt lat="45.16885" lon="5.5575">
        <ele>1105</ele>
        <time>2019-06-19T23:44:35Z</time>
      </trkpt>
      <trkpt lat="45.16873" lon="5.55648">
        <ele>1097</ele>
        <time>2019-06-19T23:44:52Z</time>
      </trkpt>
      <trkpt lat="45.16885" lon="5.55572">
        <ele>1093</ele>
        <time>2019-06-19T23:45:05Z</time>
      </trkpt>
      <trkpt lat="45.16906" lon="5.55483">
        <ele>1092</ele>
        <time>2019-06-19T23:45:21Z</time>
      </trkpt>
      <trkpt lat="45.16917" lon="5.55287">
        <ele>1082</ele>
        <time>2019-06-19T23:45:53Z</time>
      </trkpt>
      <trkpt lat="45.16933" lon="5.55263">
        <ele>1077</ele>
        <time>2019-06-19T23:45:58Z</time>
      </trkpt>
      <trkpt lat="45.17026" lon="5.55198">
        <ele>1071</ele>
        <time>2019-06-19T23:46:23Z</time>
      </trkpt>
      <trkpt lat="45.17131" lon="5.55024">
        <ele>1065</ele>
        <time>2019-06-19T23:47:00Z</time>
      </trkpt>
      <trkpt lat="45.17168" lon="5.54951">
        <ele>1062</ele>
        <time>2019-06-19T23:47:15Z</time>
      </trkpt>
      <trkpt lat="45.17195" lon="5.54905">
        <ele>1060</ele>
        <time>2019-06-19T23:47:25Z</time>
      </trkpt>
      <trkpt lat="45.17225" lon="5.54867">
        <ele>1058</ele>
        <time>2019-06-19T23:47:34Z</time>
      </trkpt>
      <trkpt lat="45.17241" lon="5.54816">
        <ele>1057</ele>
        <time>2019-06-19T23:47:44Z</time>
      </trkpt>
      <trkpt lat="45.17249" lon="5.5476">
        <ele>1055</ele>
        <time>2019-06-19T23:47:53Z</time>
      </trkpt>
      <trkpt lat="45.17313" lon="5.5462">
        <ele>1049</ele>
        <time>2019-06-19T23:48:20Z</time>
      </trkpt>
      <trkpt lat="45.17327" lon="5.54583">
        <ele>1047</ele>
        <time>2019-06-19T23:48:27Z</time>
      </trkpt>
      <trkpt lat="45.17365" lon="5.54512">
        <ele>1045</ele>
        <time>2019-06-19T23:48:42Z</time>
      </trkpt>
      <trkpt lat="45.17369" lon="5.54485">
        <ele>1045</ele>
        <time>2019-06-19T23:48:47Z</time>
      </trkpt>
      <trkpt lat="45.17347" lon="5.54415">
        <ele>1043</ele>
        <time>2019-06-19T23:48:59Z</time>
      </trkpt>
      <trkpt lat="45.17327" lon="5.54366">
        <ele>1042</ele>
        <time>2019-06-19T23:49:09Z</time>
      </trkpt>
      <trkpt lat="45.17309" lon="5.54254">
        <ele>1039</ele>
        <time>2019-06-19T23:49:27Z</time>
      </trkpt>
      <trkpt lat="45.17284" lon="5.54024">
        <ele>1035</ele>
        <time>2019-06-19T23:50:06Z</time>
      </trkpt>
      <trkpt lat="45.1728" lon="5.54009">
        <ele>1035</ele>
        <time>2019-06-19T23:50:08Z</time>
      </trkpt>
      <trkpt lat="45.17288" lon="5.53979">
        <ele>1035</ele>
        <time>2019-06-19T23:50:14Z</time>
      </trkpt>
      <trkpt lat="45.17295" lon="5.53968">
        <ele>1035</ele>
        <time>2019-06-19T23:50:16Z</time>
      </trkpt>
      <trkpt lat="45.17339" lon="5.54007">
        <ele>1035</ele>
        <time>2019-06-19T23:50:28Z</time>
      </trkpt>
      <trkpt lat="45.17354" lon="5.5404">
        <ele>1035</ele>
        <time>2019-06-19T23:50:35Z</time>
      </trkpt>
      <trkpt lat="45.17385" lon="5.5404">
        <ele>1037</ele>
        <time>2019-06-19T23:50:42Z</time>
      </trkpt>
      <trkpt lat="45.17398" lon="5.53961">
        <ele>1036</ele>
        <time>2019-06-19T23:50:55Z</time>
      </trkpt>
      <trkpt lat="45.17423" lon="5.53865">
        <ele>1033</ele>
        <time>2019-06-19T23:51:12Z</time>
      </trkpt>
      <trkpt lat="45.17501" lon="5.53912">
        <ele>1035</ele>
        <time>2019-06-19T23:51:32Z</time>
      </trkpt>
      <trkpt lat="45.17587" lon="5.53979">
        <ele>1039</ele>
        <time>2019-06-19T23:51:55Z</time>
      </trkpt>
      <trkpt lat="45.17614" lon="5.53897">
        <ele>1037</ele>
        <time>2019-06-19T23:52:10Z</time>
      </trkpt>
      <trkpt lat="45.1766" lon="5.53915">
        <ele>1039</ele>
        <time>2019-06-19T23:52:21Z</time>
        <extensions>
          <visugpx:TrkExtension xmlns:visugpx="https://www.visugpx.com/editgpx/">
            <visugpx:node>1</visugpx:node>
            </visugpx:TrkExtension>
        </extensions>
      </trkpt>
    </trkseg>
  </trk>
</gpx>